M I D A S
Marine Information and Data Acquisition System
Tripno 2116 of the Zeeleeuw from 2011-06-07 07:27:07 to 2011-06-08 12:58:23
Back to CruiseResearch ActivitiesStationsMapUnderway DataData graphs

EquipmentUnitsComment
TimeDGPSUTC
LatitudeDGPSDM.mWGS84
LongitudeDGPSDM.mWGS84
TemperatureSBE03/SBE38deg celciusITS90
ConductivitySBE21S/mITS90
SalinitySBE21 Practical Salinity Units
ChlorophylAChelsea fluorimeterg/lCalibrated in Aceton
Missing or incorrect values are displayed as -999
Sea surface data collected by the RV Zeeleeuw from 2011-06-07 06:59:36 to 2011-06-08 13:07:11
                                                                                    Next 1000 lines
Time Latitude Longitude Temperature Conductivity Salinity ChlorophylA
2011-06-07 06:59:46 51°13.636 2°56.019 19.6285 0.0094 0.05572 -3.020363
2011-06-07 06:59:51 51°13.636 2°56.019 19.629 0.0094 0.05572 -3.020363
2011-06-07 06:59:56 51°13.636 2°56.019 19.627 0.0094 0.05572 -3.020363
2011-06-07 07:00:01 51°13.636 2°56.019 19.6273 0.0094 0.05572 -3.020363
2011-06-07 07:00:06 51°13.636 2°56.019 19.6274 0.0094 0.055721 -3.020363
2011-06-07 07:00:11 51°13.636 2°56.019 19.6273 0.0094 0.055721 -3.020363
2011-06-07 07:00:16 51°13.636 2°56.019 19.6286 0.0094 0.05572 -3.020363
2011-06-07 07:00:21 51°13.636 2°56.019 19.6286 0.0094 0.05572 -3.020363
2011-06-07 07:00:26 51°13.636 2°56.019 19.629 0.0094 0.05572 -3.020363
2011-06-07 07:00:31 51°13.636 2°56.019 19.6297 0.0094 0.055721 -3.020363
2011-06-07 07:00:36 51°13.636 2°56.019 19.6302 0.0094 0.055721 -3.020363
2011-06-07 07:00:40 51°13.636 2°56.019 19.631 0.0094 0.055721 -3.020363
2011-06-07 07:00:45 51°13.636 2°56.019 19.631 0.0094 0.055721 -3.020363
2011-06-07 07:00:51 51°13.636 2°56.019 19.6312 0.0094 0.05572 -3.020363
2011-06-07 07:00:56 51°13.636 2°56.019 19.632 0.0094 0.055721 -3.020363
2011-06-07 07:01:01 51°13.636 2°56.019 19.6322 0.0094 0.055721 -3.020363
2011-06-07 07:01:06 51°13.636 2°56.019 19.6323 0.0094 0.055721 -3.020363
2011-06-07 07:01:11 51°13.636 2°56.019 19.6323 0.0094 0.055721 -3.020363
2011-06-07 07:01:16 51°13.636 2°56.019 19.6324 0.0094 0.055721 -3.020363
2011-06-07 07:01:20 51°13.636 2°56.019 19.631 0.0094 0.055721 -3.020363
2011-06-07 07:01:25 51°13.636 2°56.019 19.6314 0.0094 0.055721 -3.020363
2011-06-07 07:01:30 51°13.636 2°56.019 19.6324 0.0094 0.055721 -3.020363
2011-06-07 07:01:35 51°13.636 2°56.019 19.6327 0.0094 0.055721 -3.020363
2011-06-07 07:01:40 51°13.636 2°56.019 19.6325 0.0094 0.055721 -3.020363
2011-06-07 07:01:44 51°13.636 2°56.019 19.6331 0.0094 0.055721 -3.020363
2011-06-07 07:01:49 51°13.636 2°56.019 19.6336 0.0094 0.055721 -3.020363
2011-06-07 07:01:54 51°13.636 2°56.019 19.6349 0.0094 0.055722 -3.020363
2011-06-07 07:01:59 51°13.636 2°56.019 19.6352 0.0094 0.055721 -3.020363
2011-06-07 07:02:04 51°13.636 2°56.019 19.6367 0.0094 0.055721 -3.020363
2011-06-07 07:02:08 51°13.635 2°56.019 19.6375 0.0094 0.055721 -3.020363
2011-06-07 07:02:13 51°13.635 2°56.019 19.6376 0.0094 0.055721 -3.020363
2011-06-07 07:02:19 51°13.635 2°56.019 19.6385 0.0094 0.055722 -3.020363
2011-06-07 07:02:24 51°13.635 2°56.019 19.6385 0.0094 0.055722 -3.020363
2011-06-07 07:02:28 51°13.635 2°56.019 19.6385 0.0094 0.055722 -3.020363
2011-06-07 07:02:33 51°13.635 2°56.019 19.6389 0.0094 0.055722 -3.020363
2011-06-07 07:02:38 51°13.636 2°56.019 19.6379 0.0094 0.055722 -3.020363
2011-06-07 07:02:43 51°13.636 2°56.019 19.6379 0.0094 0.055722 -3.020363
2011-06-07 07:02:48 51°13.636 2°56.019 19.64 0.0094 0.055722 -3.020363
2011-06-07 07:02:52 51°13.636 2°56.018 19.6404 0.0094 0.055722 -3.020363
2011-06-07 07:02:57 51°13.636 2°56.019 19.6414 0.0094 0.055722 -3.020363
2011-06-07 07:03:02 51°13.635 2°56.019 19.6421 0.0094 0.055722 -3.020363
2011-06-07 07:03:08 51°13.635 2°56.019 19.6432 0.0094 0.055722 -3.020363
2011-06-07 07:03:12 51°13.635 2°56.019 19.644 0.0094 0.055722 -3.020363
2011-06-07 07:03:17 51°13.635 2°56.019 19.6443 0.0094 0.055722 -3.020363
2011-06-07 07:03:22 51°13.635 2°56.019 19.6451 0.0094 0.055722 -3.020363
2011-06-07 07:03:28 51°13.635 2°56.019 19.6453 0.0094 0.055722 -3.020363
2011-06-07 07:03:32 51°13.635 2°56.019 19.6456 0.0094 0.055722 -3.020363
2011-06-07 07:03:37 51°13.635 2°56.019 19.6467 0.0094 0.055722 -3.020363
2011-06-07 07:03:42 51°13.635 2°56.019 19.6471 0.0094 0.055722 -3.020363
2011-06-07 07:03:48 51°13.635 2°56.019 19.6475 0.0094 0.055722 -3.020363
2011-06-07 07:03:52 51°13.635 2°56.019 19.6475 0.0094 0.055722 -3.020363
2011-06-07 07:03:57 51°13.635 2°56.019 19.648 0.0094 0.055722 -3.020363
2011-06-07 07:04:03 51°13.635 2°56.019 19.6487 0.0094 0.055722 -3.020363
2011-06-07 07:04:08 51°13.635 2°56.019 19.6475 0.0094 0.055722 -3.020363
2011-06-07 07:04:12 51°13.636 2°56.018 19.6476 0.0094 0.055722 -3.020363
2011-06-07 07:04:17 51°13.636 2°56.018 19.6477 0.0094 0.055723 -3.020363
2011-06-07 07:04:22 51°13.636 2°56.018 19.647 0.0094 0.055723 -3.020363
2011-06-07 07:04:28 51°13.636 2°56.018 19.648 0.0094 0.055723 -3.020363
2011-06-07 07:04:32 51°13.636 2°56.018 19.6477 0.0094 0.055723 -3.020363
2011-06-07 07:04:37 51°13.636 2°56.018 19.6476 0.0094 0.055723 -3.020363
2011-06-07 07:04:42 51°13.636 2°56.018 19.6487 0.0094 0.055723 -3.020363
2011-06-07 07:04:48 51°13.635 2°56.018 19.6481 0.0094 0.055723 -3.020363
2011-06-07 07:04:52 51°13.635 2°56.018 19.6495 0.0094 0.055724 -3.020363
2011-06-07 07:04:57 51°13.635 2°56.018 19.6499 0.0094 0.055724 -3.020363
2011-06-07 07:05:02 51°13.635 2°56.018 19.6511 0.0094 0.055724 -3.020363
2011-06-07 07:05:08 51°13.635 2°56.018 19.6515 0.0094 0.055724 -3.020363
2011-06-07 07:05:12 51°13.635 2°56.018 19.6511 0.0094 0.055724 -3.020363
2011-06-07 07:05:18 51°13.635 2°56.018 19.6516 0.0094 0.055725 -3.020363
2011-06-07 07:05:23 51°13.635 2°56.018 19.6525 0.0094 0.055725 -3.020363
2011-06-07 07:05:28 51°13.635 2°56.018 19.6525 0.0094 0.055725 -3.020363
2011-06-07 07:05:32 51°13.636 2°56.018 19.6524 0.0094 0.055725 -3.020363
2011-06-07 07:05:37 51°13.636 2°56.017 19.6535 0.0094 0.055725 -3.020363
2011-06-07 07:05:42 51°13.636 2°56.017 19.654 0.0094 0.055725 -3.020363
2011-06-07 07:05:47 51°13.636 2°56.017 19.6537 0.0094 0.055726 -3.020363
2011-06-07 07:05:52 51°13.636 2°56.017 19.6544 0.0094 0.055726 -3.020363
2011-06-07 07:05:57 51°13.636 2°56.017 19.6544 0.0094 0.055726 -3.020363
2011-06-07 07:06:03 51°13.636 2°56.017 19.6547 0.0094 0.055726 -3.020363
2011-06-07 07:06:07 51°13.636 2°56.017 19.6555 0.0094 0.055726 -3.020363
2011-06-07 07:06:13 51°13.636 2°56.017 19.6557 0.0094 0.055726 -3.020363
2011-06-07 07:06:17 51°13.636 2°56.017 19.6566 0.0094 0.055726 -3.020363
2011-06-07 07:06:22 51°13.636 2°56.017 19.6576 0.0094 0.055726 -3.020363
2011-06-07 07:06:27 51°13.636 2°56.017 19.6578 0.0094 0.055726 -3.020363
2011-06-07 07:06:32 51°13.636 2°56.017 19.6583 0.0094 0.055726 -3.020363
2011-06-07 07:06:37 51°13.636 2°56.017 19.6582 0.0094 0.055726 -3.020363
2011-06-07 07:06:42 51°13.636 2°56.017 19.6579 0.0094 0.055726 -3.020363
2011-06-07 07:06:47 51°13.636 2°56.017 19.6582 0.0094 0.055727 -3.020363
2011-06-07 07:06:53 51°13.636 2°56.017 19.6583 0.0094 0.055727 -3.020363
2011-06-07 07:06:57 51°13.636 2°56.017 19.6597 0.0094 0.055727 -3.020363
2011-06-07 07:07:02 51°13.636 2°56.017 19.6599 0.0094 0.055728 -3.020363
2011-06-07 07:07:07 51°13.636 2°56.017 19.6603 0.0094 0.055728 -3.020363
2011-06-07 07:07:12 51°13.636 2°56.017 19.6615 0.0094 0.055728 -3.020363
2011-06-07 07:07:17 51°13.636 2°56.017 19.6614 0.0094 0.055728 -3.020363
2011-06-07 07:07:22 51°13.636 2°56.016 19.6617 0.0094 0.055728 -3.020363
2011-06-07 07:07:27 51°13.636 2°56.016 19.6628 0.0094 0.055728 -3.020363
2011-06-07 07:07:32 51°13.636 2°56.017 19.6627 0.0094 0.055729 -3.020363
2011-06-07 07:07:37 51°13.636 2°56.017 19.6627 0.0094 0.055729 -3.020363
2011-06-07 07:07:42 51°13.635 2°56.017 19.6615 0.0094 0.055729 -3.020363
2011-06-07 07:07:48 51°13.635 2°56.016 19.6622 0.0094 0.055729 -3.020363
2011-06-07 07:07:52 51°13.635 2°56.016 19.6616 0.0094 0.055729 -3.020363
2011-06-07 07:07:57 51°13.635 2°56.016 19.6613 0.0094 0.055729 -3.020363
2011-06-07 07:08:02 51°13.635 2°56.016 19.6624 0.0094 0.055729 -3.020363
2011-06-07 07:08:07 51°13.635 2°56.017 19.6639 0.0094 0.055729 -3.020363
2011-06-07 07:08:12 51°13.635 2°56.017 19.6642 0.0094 0.055729 -3.020363
2011-06-07 07:08:17 51°13.635 2°56.017 19.6656 0.0094 0.055729 -3.020363
2011-06-07 07:08:22 51°13.635 2°56.017 19.666 0.0094 0.055729 -3.020363
2011-06-07 07:08:28 51°13.635 2°56.017 19.6665 0.0094 0.05573 -3.020363
2011-06-07 07:08:33 51°13.635 2°56.017 19.667 0.0094 0.05573 -3.020363
2011-06-07 07:08:38 51°13.635 2°56.017 19.6655 0.0094 0.05573 -3.020363
2011-06-07 07:08:43 51°13.635 2°56.017 19.664 0.0094 0.05573 -3.020363
2011-06-07 07:08:48 51°13.635 2°56.017 19.6652 0.0094 0.055731 -3.020363
2011-06-07 07:08:53 51°13.635 2°56.017 19.6649 0.0094 0.055731 -3.020363
2011-06-07 07:08:58 51°13.635 2°56.017 19.6668 0.0094 0.055731 -3.020363
2011-06-07 07:09:03 51°13.635 2°56.016 19.6674 0.0094 0.055731 -3.020363
2011-06-07 07:09:08 51°13.635 2°56.016 19.6686 0.0094 0.055731 -3.020363
2011-06-07 07:09:13 51°13.636 2°56.016 19.6681 0.0094 0.055732 -3.020363
2011-06-07 07:09:17 51°13.636 2°56.016 19.6695 0.0094 0.055732 -3.020363
2011-06-07 07:09:23 51°13.636 2°56.016 19.6692 0.0094 0.055732 -3.020363
2011-06-07 07:09:28 51°13.636 2°56.016 19.6696 0.0094 0.055732 -3.020363
2011-06-07 07:09:33 51°13.636 2°56.016 19.6691 0.0094 0.055733 -3.020363
2011-06-07 07:09:37 51°13.636 2°56.016 19.6698 0.0094 0.055733 -3.020363
2011-06-07 07:09:43 51°13.636 2°56.016 19.6708 0.0094 0.055733 -3.020363
2011-06-07 07:09:48 51°13.636 2°56.016 19.6717 0.0094 0.055733 -3.020363
2011-06-07 07:09:53 51°13.636 2°56.016 19.6725 0.0094 0.055733 -3.020363
2011-06-07 07:09:57 51°13.635 2°56.017 19.6731 0.0094 0.055733 -3.020363
2011-06-07 07:10:03 51°13.635 2°56.017 19.6733 0.0094 0.055733 -3.020363
2011-06-07 07:10:08 51°13.635 2°56.017 19.6729 0.0094 0.055733 -3.020363
2011-06-07 07:10:13 51°13.635 2°56.017 19.6733 0.0094 0.055733 -3.020363
2011-06-07 07:10:17 51°13.635 2°56.017 19.6739 0.0094 0.055734 -3.020363
2011-06-07 07:10:23 51°13.636 2°56.017 19.6743 0.0094 0.055734 -3.020363
2011-06-07 07:10:28 51°13.636 2°56.016 19.675 0.0094 0.055734 -3.020363
2011-06-07 07:10:33 51°13.636 2°56.016 19.6746 0.0094 0.055734 -3.020363
2011-06-07 07:10:38 51°13.636 2°56.016 19.6753 0.0094 0.055734 -3.020363
2011-06-07 07:10:42 51°13.636 2°56.016 19.6751 0.0094 0.055734 -3.020363
2011-06-07 07:10:47 51°13.636 2°56.016 19.676 0.0094 0.055735 -3.020363
2011-06-07 07:10:53 51°13.636 2°56.016 19.6772 0.0094 0.055735 -3.020363
2011-06-07 07:10:57 51°13.636 2°56.016 19.6777 0.0094 0.055735 -3.020363
2011-06-07 07:11:03 51°13.636 2°56.016 19.6777 0.0094 0.055736 -3.020363
2011-06-07 07:11:07 51°13.636 2°56.016 19.6792 0.0094 0.055736 -3.020363
2011-06-07 07:11:12 51°13.636 2°56.016 19.6793 0.0094 0.055735 -3.020363
2011-06-07 07:11:17 51°13.636 2°56.016 19.6795 0.0094 0.055736 -3.020363
2011-06-07 07:11:22 51°13.636 2°56.016 19.6805 0.0094 0.055736 -3.020363
2011-06-07 07:11:27 51°13.636 2°56.016 19.6815 0.0094 0.055736 -3.020363
2011-06-07 07:11:32 51°13.636 2°56.016 19.6823 0.0094 0.055736 -3.020363
2011-06-07 07:11:37 51°13.636 2°56.016 19.6823 0.0094 0.055736 -3.020363
2011-06-07 07:11:43 51°13.636 2°56.017 19.6821 0.0094 0.055736 -3.020363
2011-06-07 07:11:49 51°13.636 2°56.017 19.6832 0.0094 0.055737 -3.020363
2011-06-07 07:11:52 51°13.636 2°56.017 19.6837 0.0094 0.055737 -3.020363
2011-06-07 07:11:57 51°13.636 2°56.016 19.6843 0.0094 0.055737 -3.020363
2011-06-07 07:12:02 51°13.636 2°56.016 19.6851 0.0094 0.055737 -3.020363
2011-06-07 07:12:07 51°13.636 2°56.016 19.6857 0.0094 0.055737 -3.020363
2011-06-07 07:12:13 51°13.636 2°56.016 19.686 0.0094 0.055737 -3.020363
2011-06-07 07:12:17 51°13.636 2°56.016 19.6868 0.0094 0.055738 -3.020363
2011-06-07 07:12:22 51°13.636 2°56.017 19.6872 0.0094 0.055738 -3.020363
2011-06-07 07:12:27 51°13.636 2°56.017 19.6884 0.0094 0.055738 -3.020363
2011-06-07 07:12:32 51°13.636 2°56.017 19.6891 0.0094 0.055739 -3.020363
2011-06-07 07:12:37 51°13.636 2°56.017 19.6893 0.0094 0.055739 -3.020363
2011-06-07 07:12:43 51°13.636 2°56.017 19.6902 0.0094 0.055739 -3.020363
2011-06-07 07:12:47 51°13.636 2°56.017 19.6907 0.0094 0.055739 -3.020363
2011-06-07 07:12:53 51°13.636 2°56.017 19.6921 0.0094 0.055739 -3.020363
2011-06-07 07:12:57 51°13.636 2°56.017 19.6933 0.0094 0.055739 -3.020363
2011-06-07 07:13:02 51°13.636 2°56.017 19.6942 0.0094 0.055739 -3.020363
2011-06-07 07:13:07 51°13.636 2°56.017 19.6958 0.0094 0.055739 -3.020363
2011-06-07 07:13:13 51°13.636 2°56.017 19.6959 0.0094 0.055739 -3.020363
2011-06-07 07:13:17 51°13.636 2°56.017 19.6961 0.0094 0.055739 -3.020363
2011-06-07 07:13:22 51°13.636 2°56.017 19.6976 0.0094 0.055739 -3.020363
2011-06-07 07:13:27 51°13.636 2°56.017 19.6978 0.009297 0.055174 -3.020363
2011-06-07 07:13:32 51°13.636 2°56.017 19.6987 0.0094 0.05574 -3.020363
2011-06-07 07:13:37 51°13.636 2°56.017 19.6996 0.0094 0.05574 -3.020363
2011-06-07 07:13:41 51°13.636 2°56.017 19.701 0.0094 0.055741 -3.020363
2011-06-07 07:13:47 51°13.636 2°56.017 19.7019 0.009297 0.055174 -3.020363
2011-06-07 07:13:53 51°13.636 2°56.017 19.7011 0.0094 0.055741 -3.020363
2011-06-07 07:13:57 51°13.636 2°56.017 19.7 0.009297 0.055175 -3.020363
2011-06-07 07:14:03 51°13.636 2°56.017 19.7012 0.009297 0.055175 -3.020363
2011-06-07 07:14:08 51°13.636 2°56.017 19.7055 0.009297 0.055175 -3.020363
2011-06-07 07:14:13 51°13.636 2°56.017 19.7075 0.0094 0.055741 -3.020363
2011-06-07 07:14:17 51°13.636 2°56.017 19.7086 0.0094 0.055742 -3.020363
2011-06-07 07:14:22 51°13.636 2°56.017 19.7104 0.009297 0.055175 -3.020363
2011-06-07 07:14:28 51°13.636 2°56.017 19.7114 0.0094 0.055742 -3.020363
2011-06-07 07:14:33 51°13.636 2°56.017 19.7131 0.0094 0.055743 -3.020363
2011-06-07 07:14:37 51°13.635 2°56.017 19.7148 0.0094 0.055743 -3.020363
2011-06-07 07:14:42 51°13.635 2°56.017 19.716 0.0094 0.055743 -3.020363
2011-06-07 07:14:47 51°13.635 2°56.017 19.7155 0.0094 0.055743 -3.020363
2011-06-07 07:14:52 51°13.635 2°56.017 19.7144 0.009297 0.055176 -3.020363
2011-06-07 07:14:57 51°13.635 2°56.017 19.7101 0.0094 0.055743 -3.020363
2011-06-07 07:15:04 51°13.635 2°56.017 19.6614 0.009297 0.055177 -3.020363
2011-06-07 07:15:09 51°13.635 2°56.016 19.6429 0.009297 0.055177 -3.020363
2011-06-07 07:15:14 51°13.635 2°56.015 19.7187 0.009297 0.055177 -3.020363
2011-06-07 07:15:20 51°13.636 2°56.012 19.6634 0.009297 0.055178 -3.020363
2011-06-07 07:15:25 51°13.637 2°56.008 19.7035 0.0094 0.055744 -3.020363
2011-06-07 07:15:29 51°13.638 2°56.004 19.7144 0.009297 0.055178 -3.020363
2011-06-07 07:15:34 51°13.639 2°55.999 19.704 0.0094 0.055744 -3.020363
2011-06-07 07:15:40 51°13.641 2°55.992 19.7186 0.0094 0.055744 -3.020363
2011-06-07 07:15:45 51°13.643 2°55.986 19.6987 0.0094 0.055745 -3.020363
2011-06-07 07:15:51 51°13.645 2°55.978 19.7034 0.0094 0.055745 -3.020363
2011-06-07 07:15:56 51°13.647 2°55.971 19.6975 0.009297 0.055179 -3.020363
2011-06-07 07:16:01 51°13.649 2°55.963 19.7153 0.0094 0.055746 -3.020363
2011-06-07 07:16:07 51°13.652 2°55.954 19.7142 0.0094 0.055746 -3.020363
2011-06-07 07:16:11 51°13.653 2°55.947 19.7085 0.0094 0.055746 -3.020363
2011-06-07 07:16:16 51°13.656 2°55.939 19.7049 0.009297 0.05518 -3.020363
2011-06-07 07:16:21 51°13.658 2°55.929 19.7041 0.009297 0.05518 -3.020363
2011-06-07 07:16:26 51°13.66 2°55.92 19.7042 0.0094 0.055746 -3.020363
2011-06-07 07:16:32 51°13.662 2°55.909 19.737 0.009297 0.055181 -3.020363
2011-06-07 07:16:36 51°13.664 2°55.901 19.7455 0.0094 0.055747 -3.020363
2011-06-07 07:16:41 51°13.666 2°55.892 19.7378 0.0094 0.055747 -3.020363
2011-06-07 07:16:46 51°13.668 2°55.882 19.7293 0.009297 0.055181 -3.020363
2011-06-07 07:16:52 51°13.671 2°55.87 19.7358 0.0094 0.055748 -3.020363
2011-06-07 07:16:56 51°13.672 2°55.862 19.7365 0.0094 0.055748 -3.020363
2011-06-07 07:17:01 51°13.674 2°55.853 19.7336 0.009297 0.055182 -3.020363
2011-06-07 07:17:06 51°13.676 2°55.843 19.7383 0.0094 0.055749 -3.020363
2011-06-07 07:17:11 51°13.678 2°55.834 19.734 0.0094 0.055749 -3.020363
2011-06-07 07:17:16 51°13.68 2°55.825 19.7327 0.009297 0.055182 -3.020363
2011-06-07 07:17:21 51°13.683 2°55.816 19.7301 0.009297 0.055182 -3.020363
2011-06-07 07:17:27 51°13.686 2°55.805 19.7299 0.009297 0.055182 -3.020363
2011-06-07 07:17:31 51°13.688 2°55.798 19.733 0.009297 0.055182 -3.020363
2011-06-07 07:17:36 51°13.691 2°55.79 19.7346 0.009297 0.055182 -3.020363
2011-06-07 07:17:41 51°13.695 2°55.782 19.7355 0.009297 0.055182 -3.020363
2011-06-07 07:17:46 51°13.698 2°55.774 19.7377 0.009297 0.055183 -3.020363
2011-06-07 07:17:51 51°13.702 2°55.766 19.7404 0.009297 0.055183 -3.020363
2011-06-07 07:17:56 51°13.705 2°55.758 19.7356 0.0094 0.055749 -3.020363
2011-06-07 07:18:01 51°13.709 2°55.75 19.7345 0.0094 0.055749 -3.020363
2011-06-07 07:18:06 51°13.713 2°55.743 19.7341 0.009297 0.055184 -3.020363
2011-06-07 07:18:12 51°13.717 2°55.734 19.7379 0.009297 0.055184 -3.020363
2011-06-07 07:18:17 51°13.722 2°55.727 19.7383 0.0094 0.05575 -3.020363
2011-06-07 07:18:21 51°13.725 2°55.721 19.7369 0.009297 0.055184 -3.020363
2011-06-07 07:18:26 51°13.731 2°55.714 19.738 0.009297 0.055184 -3.020363
2011-06-07 07:18:31 51°13.736 2°55.707 19.7414 0.009297 0.055185 -3.020363
2011-06-07 07:18:36 51°13.742 2°55.7 19.7435 0.009297 0.055185 -3.020363
2011-06-07 07:18:41 51°13.748 2°55.694 19.7528 0.009297 0.055185 -3.020363
2011-06-07 07:18:45 51°13.753 2°55.688 19.7536 0.009297 0.055185 -3.020363
2011-06-07 07:18:52 51°13.761 2°55.679 19.7682 0.0094 0.055752 -3.020363
2011-06-07 07:18:55 51°13.766 2°55.675 19.7495 0.009297 0.055185 -3.020363
2011-06-07 07:19:02 51°13.776 2°55.669 19.7466 0.009297 0.055185 -3.020363
2011-06-07 07:19:06 51°13.782 2°55.664 19.7481 0.009297 0.055186 -3.020363
2011-06-07 07:19:12 51°13.787 2°55.655 19.7474 0.009297 0.055186 -3.020363
2011-06-07 07:19:17 51°13.794 2°55.649 19.7473 0.009297 0.055185 -3.020363
2011-06-07 07:19:22 51°13.8 2°55.644 19.7491 0.009297 0.055186 -3.020363
2011-06-07 07:19:26 51°13.806 2°55.639 19.7552 0.009297 0.055186 -3.020363
2011-06-07 07:19:31 51°13.813 2°55.635 19.7585 0.009297 0.055186 -3.020363
2011-06-07 07:19:37 51°13.821 2°55.629 19.7636 0.009297 0.055186 -3.020363
2011-06-07 07:19:42 51°13.829 2°55.626 19.757 0.009297 0.055186 -3.020363
2011-06-07 07:19:46 51°13.835 2°55.623 19.7542 0.009297 0.055186 -3.020363
2011-06-07 07:19:51 51°13.842 2°55.62 19.7561 0.009297 0.055187 -3.020363
2011-06-07 07:19:56 51°13.85 2°55.617 19.7571 0.009297 0.055187 -3.020363
2011-06-07 07:20:02 51°13.858 2°55.614 19.7615 0.009297 0.055187 -3.020363
2011-06-07 07:20:06 51°13.864 2°55.613 19.7601 0.009297 0.055187 -3.020363
2011-06-07 07:20:12 51°13.873 2°55.612 19.7446 0.009297 0.055187 -3.020363
2011-06-07 07:20:16 51°13.879 2°55.611 19.7512 0.009297 0.055187 -3.020363
2011-06-07 07:20:22 51°13.888 2°55.611 19.7542 0.009297 0.055187 -3.020363
2011-06-07 07:20:26 51°13.894 2°55.611 19.765 0.009297 0.055187 -3.020363
2011-06-07 07:20:31 51°13.901 2°55.612 19.7627 0.009297 0.055188 -3.020363
2011-06-07 07:20:36 51°13.908 2°55.613 19.7611 0.009297 0.055188 -3.020363
2011-06-07 07:20:41 51°13.914 2°55.614 19.7515 0.009297 0.055188 -3.020363
2011-06-07 07:20:46 51°13.92 2°55.616 19.7449 0.009297 0.055188 -3.020363
2011-06-07 07:20:50 51°13.925 2°55.617 19.7473 0.009297 0.055188 -3.020363
2011-06-07 07:20:55 51°13.931 2°55.619 19.7518 0.009297 0.055188 -3.020363
2011-06-07 07:21:00 51°13.936 2°55.622 19.7538 0.009297 0.055188 -3.020363
2011-06-07 07:21:05 51°13.941 2°55.624 19.7616 0.009297 0.055188 -3.020363
2011-06-07 07:21:10 51°13.946 2°55.627 19.7932 0.009297 0.055188 -3.020363
2011-06-07 07:21:15 51°13.95 2°55.63 19.7947 0.009297 0.055188 -3.020363
2011-06-07 07:21:20 51°13.953 2°55.633 19.7874 0.009297 0.055188 -3.020363
2011-06-07 07:21:25 51°13.956 2°55.635 19.7829 0.009297 0.055188 -3.020363
2011-06-07 07:21:29 51°13.957 2°55.636 19.7764 0.009297 0.055189 -3.020363
2011-06-07 07:21:34 51°13.959 2°55.636 19.7757 0.009297 0.055188 -3.020363
2011-06-07 07:21:39 51°13.959 2°55.637 19.7736 0.009297 0.055188 -3.020363
2011-06-07 07:21:45 51°13.96 2°55.636 19.7912 0.009297 0.055189 -3.020363
2011-06-07 07:21:50 51°13.96 2°55.635 19.7944 0.009297 0.055189 -3.020363
2011-06-07 07:21:55 51°13.96 2°55.631 19.7482 0.009297 0.055189 -3.020363
2011-06-07 07:21:59 51°13.96 2°55.627 19.6188 0.009297 0.055188 -3.020363
2011-06-07 07:22:04 51°13.96 2°55.621 19.4749 0.009297 0.055186 -3.020363
2011-06-07 07:22:09 51°13.961 2°55.613 19.5514 0.009297 0.055186 -3.020363
2011-06-07 07:22:14 51°13.962 2°55.605 19.5555 0.009297 0.055188 -3.020363
2011-06-07 07:22:19 51°13.965 2°55.597 19.6299 0.009297 0.055188 -3.020363
2011-06-07 07:22:23 51°13.968 2°55.59 19.6101 0.009297 0.055188 -3.020363
2011-06-07 07:22:28 51°13.972 2°55.581 19.6371 0.009297 0.055188 -3.020363
2011-06-07 07:22:33 51°13.977 2°55.573 19.6508 0.009297 0.055189 -3.020363
2011-06-07 07:22:38 51°13.983 2°55.565 19.6551 0.009297 0.055189 -3.020363
2011-06-07 07:22:43 51°13.989 2°55.556 19.6601 0.009297 0.05519 -3.020363
2011-06-07 07:22:48 51°13.996 2°55.548 19.6647 0.009297 0.05519 -3.020363
2011-06-07 07:22:53 51°14.003 2°55.539 19.6666 0.009297 0.05519 -3.020363
2011-06-07 07:22:58 51°14.011 2°55.531 19.6747 0.009297 0.05519 -3.020363
2011-06-07 07:23:03 51°14.02 2°55.522 19.6743 0.009297 0.055191 -3.020363
2011-06-07 07:23:07 51°14.027 2°55.514 19.6782 0.009297 0.055191 -3.020363
2011-06-07 07:23:13 51°14.038 2°55.503 19.6704 0.009297 0.055191 -3.020363
2011-06-07 07:23:18 51°14.048 2°55.494 19.6747 0.009297 0.055191 -3.020363
2011-06-07 07:23:22 51°14.056 2°55.487 19.6658 0.009297 0.055191 -3.020363
2011-06-07 07:23:27 51°14.066 2°55.478 19.6796 0.009297 0.055191 -3.020363
2011-06-07 07:23:33 51°14.079 2°55.466 19.6728 0.009297 0.055191 -3.020363
2011-06-07 07:23:37 51°14.087 2°55.458 19.6891 0.009297 0.055191 -3.020363
2011-06-07 07:23:43 51°14.1 2°55.447 19.684 0.009297 0.055191 -3.020363
2011-06-07 07:23:47 51°14.109 2°55.439 19.6862 0.009297 0.055191 -3.020363
2011-06-07 07:23:53 51°14.122 2°55.426 19.6759 0.009297 0.055191 -3.020363
2011-06-07 07:23:58 51°14.133 2°55.416 19.6934 0.009297 0.055192 -3.020363
2011-06-07 07:24:03 51°14.144 2°55.404 19.6801 0.009297 0.055192 -3.020363
2011-06-07 07:24:07 51°14.154 2°55.396 19.6845 0.009297 0.055192 -3.020363
2011-06-07 07:24:13 51°14.168 2°55.382 19.6573 0.009297 0.055192 -3.020363
2011-06-07 07:24:18 51°14.179 2°55.37 19.661 0.009297 0.055192 -3.020363
2011-06-07 07:24:23 51°14.191 2°55.359 19.6961 0.009297 0.055192 -3.020363
2011-06-07 07:24:28 51°14.203 2°55.347 19.6967 0.009297 0.055193 -3.020363
2011-06-07 07:24:33 51°14.215 2°55.335 19.6837 0.009297 0.055193 -3.020363
2011-06-07 07:24:38 51°14.227 2°55.323 19.6919 0.009297 0.055193 -3.020363
2011-06-07 07:24:43 51°14.239 2°55.31 19.6792 0.009297 0.055193 -3.020363
2011-06-07 07:24:47 51°14.249 2°55.299 19.6701 0.009297 0.055194 -3.020363
2011-06-07 07:24:52 51°14.26 2°55.285 19.6508 0.009297 0.055194 -3.020363
2011-06-07 07:24:58 51°14.275 2°55.268 19.6628 0.009297 0.055194 -3.020363
2011-06-07 07:25:03 51°14.287 2°55.254 19.6812 0.009297 0.055194 -3.020363
2011-06-07 07:25:07 51°14.297 2°55.243 19.6707 0.009297 0.055194 -3.020363
2011-06-07 07:25:12 51°14.309 2°55.229 19.681 0.009297 0.055194 -3.020363
2011-06-07 07:25:17 51°14.322 2°55.215 19.6586 0.009297 0.055194 -3.020363
2011-06-07 07:25:23 51°14.337 2°55.199 19.6798 0.009297 0.055194 -3.020363
2011-06-07 07:25:28 51°14.349 2°55.185 19.6768 0.009297 0.055194 -3.020363
2011-06-07 07:25:33 51°14.362 2°55.171 19.6562 0.009297 0.055194 -3.020363
2011-06-07 07:25:38 51°14.375 2°55.157 19.6936 0.009297 0.055194 -3.020363
2011-06-07 07:25:43 51°14.388 2°55.144 19.693 0.009297 0.055194 -3.020363
2011-06-07 07:25:48 51°14.401 2°55.13 19.6404 0.009297 0.055194 -3.020363
2011-06-07 07:25:53 51°14.414 2°55.117 19.6258 0.009297 0.055195 -3.020363
2011-06-07 07:25:57 51°14.425 2°55.106 19.6783 0.009297 0.055194 -3.020363
2011-06-07 07:26:03 51°14.441 2°55.091 19.6781 0.009297 0.055195 -3.020363
2011-06-07 07:26:08 51°14.454 2°55.078 19.6896 0.009297 0.055195 -3.020363
2011-06-07 07:26:13 51°14.468 2°55.065 19.6707 0.009297 0.055195 -3.020363
2011-06-07 07:26:18 51°14.481 2°55.051 19.6937 0.009297 0.055195 -3.020363
2011-06-07 07:26:23 51°14.494 2°55.037 19.672 0.009297 0.055195 -3.020363
2011-06-07 07:26:28 51°14.508 2°55.023 19.675 0.009297 0.055195 -3.020363
2011-06-07 07:26:32 51°14.518 2°55.011 19.6266 0.009297 0.055195 -3.020363
2011-06-07 07:26:38 51°14.534 2°54.993 19.684 0.009297 0.055195 -3.020363
2011-06-07 07:26:43 51°14.547 2°54.979 19.6123 0.009297 0.055196 -3.020363
2011-06-07 07:26:48 51°14.56 2°54.963 19.633 0.009297 0.055196 -3.020363
2011-06-07 07:26:52 51°14.57 2°54.951 19.6709 0.009297 0.055196 -3.020363
2011-06-07 07:26:58 51°14.586 2°54.932 19.6672 0.009297 0.055196 -3.020363
2011-06-07 07:27:03 51°14.598 2°54.916 19.6639 0.009297 0.055196 -3.020363
2011-06-07 07:27:08 51°14.611 2°54.899 19.6536 0.009297 0.055196 -3.020363
2011-06-07 07:27:12 51°14.621 2°54.886 19.6559 0.009297 0.055196 -3.020363
2011-06-07 07:27:17 51°14.633 2°54.869 19.6396 0.009297 0.055196 -3.020363
2011-06-07 07:27:23 51°14.649 2°54.849 19.6265 0.009297 0.055196 -3.020363
2011-06-07 07:27:28 51°14.661 2°54.832 19.6146 0.009297 0.055197 -3.020363
2011-06-07 07:27:32 51°14.672 2°54.819 19.6372 0.009297 0.055197 -3.020363
2011-06-07 07:27:37 51°14.685 2°54.803 19.6571 0.009297 0.055197 -3.020363
2011-06-07 07:27:42 51°14.698 2°54.787 19.6212 0.009297 0.055197 -3.020363
2011-06-07 07:27:48 51°14.715 2°54.768 19.6567 0.009297 0.055197 -3.020363
2011-06-07 07:27:52 51°14.725 2°54.755 19.6113 0.009297 0.055197 -3.020363
2011-06-07 07:27:57 51°14.739 2°54.74 19.5987 0.009297 0.055197 -3.020363
2011-06-07 07:28:03 51°14.756 2°54.722 19.6541 0.009297 0.055197 -3.020363
2011-06-07 07:28:08 51°14.77 2°54.708 19.626 0.009297 0.055197 -3.020363
2011-06-07 07:28:13 51°14.784 2°54.693 19.6483 0.009297 0.055197 -3.020363
2011-06-07 07:28:18 51°14.798 2°54.679 19.6409 0.009297 0.055198 -3.020363
2011-06-07 07:28:23 51°14.812 2°54.664 19.649 0.009297 0.055198 -3.020363
2011-06-07 07:28:28 51°14.826 2°54.65 19.6553 0.009297 0.055198 -3.020363
2011-06-07 07:28:33 51°14.841 2°54.636 19.6403 0.009297 0.055198 -3.020363
2011-06-07 07:28:37 51°14.852 2°54.624 19.6586 0.009297 0.055198 -3.020363
2011-06-07 07:28:43 51°14.869 2°54.607 19.6199 0.009297 0.055198 -3.020363
2011-06-07 07:28:48 51°14.884 2°54.591 19.6229 0.009297 0.055198 -3.020363
2011-06-07 07:28:53 51°14.898 2°54.576 19.6553 0.009297 0.055198 -3.020363
2011-06-07 07:28:58 51°14.913 2°54.56 19.6531 0.009297 0.055198 -3.020363
2011-06-07 07:29:03 51°14.927 2°54.543 19.6613 0.009297 0.055198 -3.020363
2011-06-07 07:29:08 51°14.942 2°54.526 19.6485 0.009297 0.055198 -3.020363
2011-06-07 07:29:13 51°14.956 2°54.508 19.6554 0.009297 0.055198 -3.020363
2011-06-07 07:29:18 51°14.971 2°54.491 19.6392 0.009297 0.055199 -3.020363
2011-06-07 07:29:22 51°14.983 2°54.477 19.6564 0.009297 0.055198 -3.020363
2011-06-07 07:29:28 51°15 2°54.456 19.2185 0.009297 0.055198 -3.020363
2011-06-07 07:29:33 51°15.015 2°54.438 18.3584 0.009297 0.055207 -3.020363
2011-06-07 07:29:37 51°15.027 2°54.424 17.9447 0.009297 0.055207 -3.020363
2011-06-07 07:29:43 51°15.045 2°54.404 17.5683 0.009297 0.055232 -3.020363
2011-06-07 07:29:48 51°15.06 2°54.387 17.3026 3.781339 28.762181 -3.020363
2011-06-07 07:29:53 51°15.075 2°54.369 17.216 3.916211 29.008097 -3.020363
2011-06-07 07:29:57 51°15.087 2°54.356 17.1358 3.982006 29.275537 -3.020363
2011-06-07 07:30:01 51°15.099 2°54.343 17.1194 3.755111 27.337726 -3.020363
2011-06-07 07:30:08 51°15.121 2°54.32 17.0777 3.755111 27.337726 -3.020363
2011-06-07 07:30:13 51°15.136 2°54.305 16.9789 4.05932 29.991144 -3.020363
2011-06-07 07:30:17 51°15.149 2°54.292 16.9406 4.083785 30.431251 -3.020363
2011-06-07 07:30:23 51°15.167 2°54.273 16.9235 4.099649 30.865185 -3.020363
2011-06-07 07:30:28 51°15.183 2°54.257 16.9016 4.106805 31.105335 -3.020363
2011-06-07 07:30:33 51°15.198 2°54.241 16.854 4.102972 31.218196 -3.020363
2011-06-07 07:30:37 51°15.21 2°54.228 16.8414 4.102972 31.218196 -3.020363
2011-06-07 07:30:43 51°15.228 2°54.207 16.8406 4.11054 31.373431 -3.020363
2011-06-07 07:30:48 51°15.243 2°54.189 16.8337 4.106188 31.414781 -3.020363
2011-06-07 07:30:53 51°15.257 2°54.171 16.8177 4.106397 31.479083 -3.020363
2011-06-07 07:30:57 51°15.268 2°54.156 16.8131 4.10194 31.494287 -3.020363
2011-06-07 07:31:02 51°15.282 2°54.136 16.7888 4.096344 31.48783 -3.020363
2011-06-07 07:31:08 51°15.298 2°54.113 16.7914 4.096344 31.48783 -3.020363
2011-06-07 07:31:12 51°15.308 2°54.096 16.7671 4.079449 31.372522 -3.020363
2011-06-07 07:31:17 51°15.322 2°54.076 16.7501 4.075407 31.362331 -3.020363
2011-06-07 07:31:23 51°15.338 2°54.052 16.7475 4.074889 31.377986 -3.020363
2011-06-07 07:31:28 51°15.351 2°54.031 16.7359 4.059032 31.260052 -3.020363
2011-06-07 07:31:33 51°15.363 2°54.01 16.717 4.06608 31.334384 -3.020363
2011-06-07 07:31:38 51°15.376 2°53.989 16.7148 4.06608 31.334384 -3.020363
2011-06-07 07:31:42 51°15.386 2°53.972 16.7067 4.070537 31.387786 -3.020363
2011-06-07 07:31:47 51°15.398 2°53.952 16.6972 4.071366 31.405629 -3.020363
2011-06-07 07:31:52 51°15.411 2°53.932 16.6964 4.073336 31.436452 -3.020363
2011-06-07 07:31:58 51°15.428 2°53.908 16.6965 4.077067 31.480577 -3.020363
2011-06-07 07:32:02 51°15.438 2°53.893 16.6958 4.081317 31.529205 -3.020363
2011-06-07 07:32:07 51°15.452 2°53.875 16.6882 4.081317 31.529205 -3.020363
2011-06-07 07:32:13 51°15.469 2°53.853 16.6943 4.083494 31.560013 -3.020363
2011-06-07 07:32:18 51°15.483 2°53.835 16.6913 4.088988 31.616265 -3.020363
2011-06-07 07:32:22 51°15.494 2°53.821 16.6694 4.089195 31.62569 -3.020363
2011-06-07 07:32:27 51°15.509 2°53.804 16.6782 4.091061 31.646878 -3.020363
2011-06-07 07:32:33 51°15.526 2°53.783 16.6844 4.091787 31.658237 -3.020363
2011-06-07 07:32:38 51°15.54 2°53.766 16.6611 4.091787 31.658237 -3.020363
2011-06-07 07:32:42 51°15.552 2°53.752 16.6579 4.090336 31.648904 -3.020363
2011-06-07 07:32:47 51°15.566 2°53.736 16.6743 4.09075 31.656307 -3.020363
2011-06-07 07:32:52 51°15.58 2°53.718 16.681 4.092409 31.673809 -3.020363
2011-06-07 07:32:58 51°15.597 2°53.697 16.654 4.092409 31.678277 -3.020363
2011-06-07 07:33:02 51°15.609 2°53.683 16.6573 4.090129 31.662421 -3.020363
2011-06-07 07:33:07 51°15.623 2°53.666 16.6628 4.090129 31.662421 -3.020363
2011-06-07 07:33:12 51°15.637 2°53.648 16.6489 4.087537 31.644516 -3.020363
2011-06-07 07:33:18 51°15.654 2°53.626 16.6417 4.087641 31.650515 -3.020363
2011-06-07 07:33:22 51°15.665 2°53.612 16.6457 4.085153 31.630312 -3.020363
2011-06-07 07:33:26 51°15.676 2°53.597 16.6466 4.083495 31.617268 -3.020363
2011-06-07 07:33:32 51°15.692 2°53.574 16.6472 4.084635 31.630301 -3.020363
2011-06-07 07:33:37 51°15.706 2°53.555 16.647 4.084635 31.630301 -3.020363
2011-06-07 07:33:43 51°15.722 2°53.531 16.6457 4.084117 31.629015 -3.020363
2011-06-07 07:33:48 51°15.735 2°53.512 16.6527 4.082666 31.619672 -3.020363
2011-06-07 07:33:53 51°15.748 2°53.493 16.6487 4.082666 31.623498 -3.020363
2011-06-07 07:33:58 51°15.762 2°53.475 16.6428 4.081215 31.613516 -3.020363
2011-06-07 07:34:03 51°15.777 2°53.457 16.6501 4.082355 31.62464 -3.020363
2011-06-07 07:34:08 51°15.791 2°53.44 16.647 4.082355 31.62464 -3.020363
2011-06-07 07:34:13 51°15.806 2°53.424 16.6518 4.079868 31.604428 -3.020363
2011-06-07 07:34:18 51°15.821 2°53.409 16.6562 4.079038 31.597904 -3.020363
2011-06-07 07:34:23 51°15.836 2°53.394 16.6482 4.078417 31.591895 -3.020363
2011-06-07 07:34:28 51°15.852 2°53.38 16.6555 4.078106 31.589209 -3.020363
2011-06-07 07:34:33 51°15.868 2°53.366 16.6477 4.076758 31.578208 -3.020363
2011-06-07 07:34:38 51°15.884 2°53.352 16.6417 4.076758 31.578208 -3.020363
2011-06-07 07:34:43 51°15.9 2°53.34 16.6405 4.07738 31.582942 -3.020363
2011-06-07 07:34:47 51°15.913 2°53.329 16.6442 4.0751 31.561976 -3.020363
2011-06-07 07:34:52 51°15.929 2°53.317 16.6404 4.075514 31.564282 -3.020363
2011-06-07 07:34:58 51°15.949 2°53.303 16.6372 4.075203 31.561597 -3.020363
2011-06-07 07:35:03 51°15.965 2°53.291 16.6385 4.075825 31.566968 -3.020363
2011-06-07 07:35:07 51°15.979 2°53.281 16.6355 4.075825 31.566968 -3.020363
2011-06-07 07:35:12 51°15.995 2°53.268 16.631 4.073234 31.546501 -3.020363
2011-06-07 07:35:18 51°16.015 2°53.254 16.63 4.074271 31.557998 -3.020363
2011-06-07 07:35:23 51°16.031 2°53.241 16.6303 4.071472 31.535103 -3.020363
2011-06-07 07:35:27 51°16.044 2°53.23 16.6272 4.072301 31.543537 -3.020363
2011-06-07 07:35:32 51°16.06 2°53.216 16.6237 4.072301 31.545447 -3.020363
2011-06-07 07:35:37 51°16.076 2°53.202 16.6306 4.072301 31.545447 -3.020363
2011-06-07 07:35:43 51°16.095 2°53.185 16.6259 4.071887 31.543775 -3.020363
2011-06-07 07:35:48 51°16.111 2°53.17 16.6224 4.073338 31.558856 -3.020363
2011-06-07 07:35:52 51°16.123 2°53.159 16.6202 4.073027 31.557444 -3.020363
2011-06-07 07:35:58 51°16.142 2°53.141 16.6212 4.074893 31.576111 -3.020363
2011-06-07 07:36:03 51°16.158 2°53.126 16.6203 4.074271 31.572012 -3.020363
2011-06-07 07:36:08 51°16.174 2°53.112 16.6256 4.074271 31.572012 -3.020363
2011-06-07 07:36:12 51°16.186 2°53.1 16.6172 4.074478 31.575716 -3.020363
2011-06-07 07:36:17 51°16.202 2°53.087 16.6216 4.073649 31.569188 -3.020363
2011-06-07 07:36:22 51°16.219 2°53.073 16.613 4.071887 31.555875 -3.020363
2011-06-07 07:36:28 51°16.239 2°53.058 16.6117 4.07282 31.564573 -3.020363
2011-06-07 07:36:33 51°16.255 2°53.046 16.6196 4.07282 31.56521 -3.020363
2011-06-07 07:36:38 51°16.272 2°53.034 16.6076 4.07282 31.56521 -3.020363
2011-06-07 07:36:43 51°16.288 2°53.022 16.6104 4.073338 31.569688 -3.020363
2011-06-07 07:36:48 51°16.305 2°53.01 16.61 4.073338 31.569688 -3.020363
2011-06-07 07:36:53 51°16.321 2°52.997 16.6073 4.07396 31.575062 -3.020363
2011-06-07 07:36:57 51°16.335 2°52.988 16.5971 4.074064 31.577871 -3.020363
2011-06-07 07:37:01 51°16.348 2°52.977 16.6065 4.075722 31.593479 -3.020363
2011-06-07 07:37:08 51°16.371 2°52.959 16.5958 4.075722 31.593479 -3.020363
2011-06-07 07:37:13 51°16.387 2°52.946 16.61 4.074997 31.588484 -3.020363
2011-06-07 07:37:17 51°16.4 2°52.935 16.596 4.077277 31.610748 -3.020363
2011-06-07 07:37:21 51°16.413 2°52.924 16.5959 4.078624 31.623035 -3.020363
2011-06-07 07:37:27 51°16.432 2°52.907 16.6042 4.080179 31.639033 -3.020363
2011-06-07 07:37:33 51°16.451 2°52.891 16.6002 4.081941 31.657466 -3.020363
2011-06-07 07:37:37 51°16.464 2°52.88 16.5926 4.081941 31.657466 -3.020363
2011-06-07 07:37:42 51°16.481 2°52.868 16.5867 4.08049 31.646835 -3.020363
2011-06-07 07:37:48 51°16.5 2°52.853 16.5877 4.0836 31.675008 -3.020363
2011-06-07 07:37:52 51°16.514 2°52.844 16.583 4.084533 31.683718 -3.020363
2011-06-07 07:37:58 51°16.534 2°52.83 16.5805 4.085776 31.695758 -3.020363
2011-06-07 07:38:02 51°16.548 2°52.821 16.576 4.085258 31.690634 -3.020363
2011-06-07 07:38:07 51°16.565 2°52.81 16.5829 4.085258 31.690634 -3.020363
2011-06-07 07:38:12 51°16.582 2°52.8 16.5739 4.086191 31.699344 -3.020363
2011-06-07 07:38:18 51°16.602 2°52.787 16.5711 4.087746 31.715359 -3.020363
2011-06-07 07:38:22 51°16.616 2°52.779 16.5661 4.088782 31.726892 -3.020363
2011-06-07 07:38:27 51°16.633 2°52.769 16.5596 4.088471 31.728048 -3.020363
2011-06-07 07:38:32 51°16.65 2°52.76 16.5538 4.090441 31.747018 -3.020363
2011-06-07 07:38:38 51°16.671 2°52.748 16.5485 4.090441 31.747018 -3.020363
2011-06-07 07:38:42 51°16.684 2°52.74 16.5487 4.090545 31.74984 -3.020363
2011-06-07 07:38:47 51°16.701 2°52.73 16.5431 4.089301 31.740999 -3.020363
2011-06-07 07:38:53 51°16.721 2°52.717 16.5421 4.092618 31.772282 -3.020363
2011-06-07 07:38:58 51°16.738 2°52.705 16.5382 4.093447 31.783317 -3.020363
2011-06-07 07:39:02 51°16.751 2°52.696 16.5338 4.091892 31.773709 -3.020363
2011-06-07 07:39:07 51°16.768 2°52.684 16.5311 4.091892 31.773709 -3.020363
2011-06-07 07:39:12 51°16.784 2°52.671 16.5335 4.095831 31.813613 -3.020363
2011-06-07 07:39:18 51°16.803 2°52.657 16.5367 4.096453 31.82222 -3.020363
2011-06-07 07:39:22 51°16.816 2°52.646 16.5301 4.097697 31.837506 -3.020363
2011-06-07 07:39:27 51°16.833 2°52.634 16.5315 4.098941 31.850863 -3.020363
2011-06-07 07:39:33 51°16.852 2°52.618 16.5264 4.100703 31.869361 -3.020363
2011-06-07 07:39:38 51°16.868 2°52.606 16.5238 4.100703 31.869361 -3.020363
2011-06-07 07:39:42 51°16.882 2°52.596 16.5176 4.09977 31.864499 -3.020363
2011-06-07 07:39:47 51°16.898 2°52.584 16.5153 4.100703 31.873877 -3.020363
2011-06-07 07:39:53 51°16.918 2°52.57 16.5141 4.100703 31.874522 -3.020363
2011-06-07 07:39:58 51°16.935 2°52.558 16.5086 4.100911 31.87761 -3.020363
2011-06-07 07:40:02 51°16.948 2°52.55 16.503 4.099978 31.871458 -3.020363
2011-06-07 07:40:07 51°16.965 2°52.539 16.5062 4.099978 31.871458 -3.020363
2011-06-07 07:40:12 51°16.983 2°52.53 16.4889 4.100807 31.880584 -3.020363
2011-06-07 07:40:18 51°17.004 2°52.521 16.4937 4.095521 31.837329 -3.020363
2011-06-07 07:40:22 51°17.018 2°52.516 16.4979 4.101429 31.891789 -3.020363
2011-06-07 07:40:27 51°17.035 2°52.51 16.4808 4.101014 31.890777 -3.020363
2011-06-07 07:40:32 51°17.053 2°52.504 16.4757 4.101014 31.894007 -3.020363
2011-06-07 07:40:38 51°17.075 2°52.499 16.4807 4.101014 31.894007 -3.020363
2011-06-07 07:40:42 51°17.089 2°52.496 16.4724 4.098941 31.878608 -3.020363
2011-06-07 07:40:47 51°17.107 2°52.492 16.4771 4.09946 31.887626 -3.020363
2011-06-07 07:40:52 51°17.125 2°52.489 16.4738 4.10174 31.911291 -3.020363
2011-06-07 07:40:58 51°17.147 2°52.485 16.4574 4.086089 31.776801 -3.020363
2011-06-07 07:41:03 51°17.165 2°52.482 16.4565 4.105472 31.950799 -3.020363
2011-06-07 07:41:08 51°17.183 2°52.479 16.4507 4.105472 31.950799 -3.020363
2011-06-07 07:41:13 51°17.201 2°52.476 16.4452 4.10371 31.938739 -3.020363
2011-06-07 07:41:18 51°17.219 2°52.472 16.4353 4.104125 31.945577 -3.020363
2011-06-07 07:41:23 51°17.237 2°52.467 16.421 4.104954 31.954721 -3.020363
2011-06-07 07:41:28 51°17.255 2°52.463 16.404 4.105057 31.958213 -3.020363
2011-06-07 07:41:33 51°17.273 2°52.457 16.4045 4.107234 31.982955 -3.020363
2011-06-07 07:41:38 51°17.291 2°52.452 16.3916 4.107234 31.982955 -3.020363
2011-06-07 07:41:43 51°17.308 2°52.446 16.3856 4.104228 31.962681 -3.020363
2011-06-07 07:41:47 51°17.323 2°52.441 16.3824 4.107856 32.000042 -3.020363
2011-06-07 07:41:53 51°17.344 2°52.433 16.3781 4.1091 32.017999 -3.020363
2011-06-07 07:41:58 51°17.362 2°52.426 16.3682 4.111174 32.043825 -3.020363
2011-06-07 07:42:03 51°17.379 2°52.419 16.3694 4.110759 32.049982 -3.020363
2011-06-07 07:42:07 51°17.394 2°52.415 16.3599 4.110759 32.049982 -3.020363
2011-06-07 07:42:12 51°17.411 2°52.409 16.3533 4.111692 32.067216 -3.020363
2011-06-07 07:42:17 51°17.429 2°52.403 16.339 4.113973 32.094232 -3.020363
2011-06-07 07:42:23 51°17.45 2°52.397 16.3271 4.113455 32.095593 -3.020363
2011-06-07 07:42:28 51°17.468 2°52.393 16.3241 4.112937 32.096954 -3.020363
2011-06-07 07:42:32 51°17.482 2°52.391 16.3115 4.116046 32.129909 -3.020363
2011-06-07 07:42:38 51°17.503 2°52.388 16.3033 4.116046 32.129909 -3.020363
2011-06-07 07:42:43 51°17.521 2°52.388 16.2939 4.117083 32.144167 -3.020363
2011-06-07 07:42:48 51°17.538 2°52.387 16.3015 4.118742 32.165158 -3.020363
2011-06-07 07:42:52 51°17.553 2°52.387 16.2882 4.118742 32.171705 -3.020363
2011-06-07 07:42:57 51°17.57 2°52.388 16.2829 4.118327 32.175295 -3.020363
2011-06-07 07:43:02 51°17.588 2°52.39 16.2872 4.123199 32.226952 -3.020363
2011-06-07 07:43:08 51°17.608 2°52.392 16.2858 4.123199 32.226952 -3.020363
2011-06-07 07:43:12 51°17.622 2°52.395 16.2759 4.122992 32.232365 -3.020363
2011-06-07 07:43:17 51°17.64 2°52.398 16.2843 4.121852 32.231612 -3.020363
2011-06-07 07:43:22 51°17.657 2°52.401 16.2946 4.121645 32.235058 -3.020363
2011-06-07 07:43:28 51°17.678 2°52.404 16.2924 4.121334 32.237601 -3.020363
2011-06-07 07:43:32 51°17.692 2°52.406 16.2929 4.1232 32.25849 -3.020363
2011-06-07 07:43:37 51°17.709 2°52.408 16.2921 4.1232 32.25849 -3.020363
2011-06-07 07:43:43 51°17.73 2°52.41 16.2909 4.12123 32.2459 -3.020363
2011-06-07 07:43:48 51°17.748 2°52.412 16.2942 4.118328 32.222534 -3.020363
2011-06-07 07:43:53 51°17.765 2°52.414 16.2975 4.119779 32.23586 -3.020363
2011-06-07 07:43:58 51°17.782 2°52.419 16.3021 4.119572 32.232736 -3.020363
2011-06-07 07:44:02 51°17.796 2°52.423 16.2986 4.116151 32.202218 -3.020363
2011-06-07 07:44:08 51°17.816 2°52.431 16.3039 4.116151 32.202218 -3.020363
2011-06-07 07:44:13 51°17.833 2°52.439 16.3016 4.119054 32.226897 -3.020363
2011-06-07 07:44:18 51°17.849 2°52.448 16.3047 4.11781 32.216038 -3.020363
2011-06-07 07:44:22 51°17.863 2°52.455 16.3019 4.116669 32.204772 -3.020363
2011-06-07 07:44:27 51°17.879 2°52.464 16.3051 4.117499 32.21004 -3.020363
2011-06-07 07:44:33 51°17.898 2°52.475 16.3076 4.117395 32.206508 -3.020363
2011-06-07 07:44:38 51°17.915 2°52.485 16.3073 4.117395 32.206508 -3.020363
2011-06-07 07:44:42 51°17.927 2°52.494 16.3065 4.118121 32.211527 -3.020363
2011-06-07 07:44:47 51°17.943 2°52.504 16.3073 4.117084 32.201168 -3.020363
2011-06-07 07:44:53 51°17.963 2°52.516 16.304 4.116566 32.195989 -3.020363
2011-06-07 07:44:58 51°17.979 2°52.526 16.3052 4.115736 32.188753 -3.020363
2011-06-07 07:45:02 51°17.993 2°52.534 16.3032 4.116358 32.193524 -3.020363
2011-06-07 07:45:08 51°18.012 2°52.545 16.305 4.116358 32.193524 -3.020363
2011-06-07 07:45:13 51°18.028 2°52.555 16.3054 4.116151 32.191059 -3.020363
2011-06-07 07:45:18 51°18.045 2°52.565 16.3101 4.1147 32.178397 -3.020363
2011-06-07 07:45:23 51°18.062 2°52.574 16.3069 4.11273 32.161869 -3.020363
2011-06-07 07:45:28 51°18.078 2°52.583 16.3078 4.11584 32.189002 -3.020363
2011-06-07 07:45:33 51°18.095 2°52.592 16.3069 4.115425 32.185384 -3.020363
2011-06-07 07:45:38 51°18.111 2°52.6 16.3075 4.115425 32.185384 -3.020363
2011-06-07 07:45:42 51°18.125 2°52.607 16.3049 4.114803 32.179957 -3.020363
2011-06-07 07:45:48 51°18.144 2°52.62 16.3073 4.115633 32.187193 -3.020363
2011-06-07 07:45:53 51°18.16 2°52.631 16.3051 4.114181 32.174531 -3.020363
2011-06-07 07:45:58 51°18.176 2°52.643 16.3065 4.115322 32.184479 -3.020363
2011-06-07 07:46:02 51°18.189 2°52.653 16.3069 4.11584 32.188345 -3.020363
2011-06-07 07:46:07 51°18.204 2°52.667 16.3054 4.11584 32.188345 -3.020363
2011-06-07 07:46:13 51°18.221 2°52.685 16.3041 4.117395 32.201256 -3.020363
2011-06-07 07:46:18 51°18.235 2°52.702 16.3027 4.117602 32.203722 -3.020363
2011-06-07 07:46:22 51°18.247 2°52.715 16.3057 4.116773 32.196486 -3.020363
2011-06-07 07:46:26 51°18.257 2°52.729 16.3054 4.117291 32.200352 -3.020363
2011-06-07 07:46:33 51°18.276 2°52.754 16.3071 4.117084 32.198543 -3.020363
2011-06-07 07:46:38 51°18.289 2°52.772 16.3087 4.117084 32.198543 -3.020363
2011-06-07 07:46:42 51°18.3 2°52.786 16.3114 4.116773 32.195829 -3.020363
2011-06-07 07:46:47 51°18.313 2°52.805 16.3119 4.117084 32.199199 -3.020363
2011-06-07 07:46:52 51°18.326 2°52.823 16.3124 4.117084 32.199855 -3.020363
2011-06-07 07:46:58 51°18.342 2°52.845 16.3152 4.116047 32.190154 -3.020363
2011-06-07 07:47:02 51°18.352 2°52.86 16.3179 4.11584 32.188345 -3.020363
2011-06-07 07:47:08 51°18.368 2°52.881 16.3246 4.11584 32.188345 -3.020363
2011-06-07 07:47:12 51°18.379 2°52.896 16.3257 4.115736 32.186785 -3.020363
2011-06-07 07:47:18 51°18.395 2°52.917 16.3277 4.116151 32.189746 -3.020363
2011-06-07 07:47:22 51°18.406 2°52.931 16.3286 4.115425 32.18276 -3.020363
2011-06-07 07:47:28 51°18.422 2°52.952 16.3314 4.115736 32.184161 -3.020363
2011-06-07 07:47:33 51°18.435 2°52.97 16.3325 4.115218 32.177671 -3.020363
2011-06-07 07:47:38 51°18.449 2°52.988 16.3353 4.115218 32.177671 -3.020363
2011-06-07 07:47:42 51°18.459 2°53.002 16.3408 4.115425 32.176857 -3.020363
2011-06-07 07:47:47 51°18.473 2°53.02 16.3405 4.114078 32.162481 -3.020363
2011-06-07 07:47:53 51°18.489 2°53.041 16.3417 4.113559 32.155995 -3.020363
2011-06-07 07:47:58 51°18.502 2°53.059 16.3428 4.112626 32.145894 -3.020363
2011-06-07 07:48:02 51°18.512 2°53.073 16.3434 4.111486 32.133987 -3.020363
2011-06-07 07:48:07 51°18.526 2°53.09 16.3442 4.111486 32.133987 -3.020363
2011-06-07 07:48:13 51°18.541 2°53.111 16.3481 4.110242 32.121179 -3.020363
2011-06-07 07:48:18 51°18.553 2°53.13 16.3479 4.109828 32.115601 -3.020363
2011-06-07 07:48:22 51°18.563 2°53.147 16.3456 4.112834 32.139845 -3.020363
2011-06-07 07:48:27 51°18.574 2°53.167 16.3424 4.112315 32.133363 -3.020363
2011-06-07 07:48:33 51°18.586 2°53.193 16.3441 4.111071 32.120557 -3.020363
2011-06-07 07:48:38 51°18.597 2°53.214 16.3389 4.111071 32.120557 -3.020363
2011-06-07 07:48:42 51°18.604 2°53.233 16.3382 4.111797 32.126228 -3.020363
2011-06-07 07:48:47 51°18.613 2°53.255 16.3379 4.109205 32.10168 -3.020363
2011-06-07 07:48:52 51°18.622 2°53.279 16.3375 4.109931 32.106696 -3.020363
2011-06-07 07:48:58 51°18.632 2°53.307 16.335 4.108687 32.095202 -3.020363
2011-06-07 07:49:02 51°18.638 2°53.326 16.3351 4.112108 32.126321 -3.020363
2011-06-07 07:49:07 51°18.647 2°53.35 16.3383 4.112108 32.126321 -3.020363
2011-06-07 07:49:12 51°18.654 2°53.374 16.336 4.113455 32.138721 -3.020363
2011-06-07 07:49:18 51°18.664 2°53.403 16.3398 4.113352 32.139126 -3.020363
2011-06-07 07:49:22 51°18.67 2°53.422 16.3366 4.112834 32.135917 -3.020363
2011-06-07 07:49:27 51°18.678 2°53.446 16.3429 4.113663 32.144455 -3.020363
2011-06-07 07:49:33 51°18.688 2°53.475 16.342 4.113248 32.14215 -3.020363
2011-06-07 07:49:38 51°18.696 2°53.499 16.3453 4.113248 32.14215 -3.020363
2011-06-07 07:49:42 51°18.702 2°53.518 16.3463 4.112626 32.136728 -3.020363
2011-06-07 07:49:47 51°18.711 2°53.541 16.3511 4.11273 32.137632 -3.020363
2011-06-07 07:49:52 51°18.72 2°53.565 16.3524 4.112212 32.132459 -3.020363
2011-06-07 07:49:58 51°18.73 2°53.592 16.3547 4.112108 32.131556 -3.020363
2011-06-07 07:50:02 51°18.738 2°53.611 16.3576 4.11159 32.125729 -3.020363
2011-06-07 07:50:07 51°18.747 2°53.634 16.3616 4.11159 32.125729 -3.020363
2011-06-07 07:50:13 51°18.758 2°53.661 16.3643 4.110864 32.118096 -3.020363
2011-06-07 07:50:18 51°18.767 2°53.684 16.3674 4.111071 32.118595 -3.020363
2011-06-07 07:50:22 51°18.774 2°53.703 16.3712 4.111486 32.120247 -3.020363
2011-06-07 07:50:28 51°18.785 2°53.73 16.3723 4.109931 32.104081 -3.020363
2011-06-07 07:50:33 51°18.794 2°53.754 16.3774 4.108687 32.091282 -3.020363
2011-06-07 07:50:38 51°18.803 2°53.777 16.3786 4.108687 32.091282 -3.020363
2011-06-07 07:50:42 51°18.81 2°53.796 16.3807 4.108998 32.091378 -3.020363
2011-06-07 07:50:47 51°18.818 2°53.819 16.3834 4.107754 32.077929 -3.020363
2011-06-07 07:50:53 51°18.828 2°53.847 16.3858 4.10765 32.074415 -3.020363
2011-06-07 07:50:58 51°18.837 2°53.871 16.3895 4.106199 32.058512 -3.020363
2011-06-07 07:51:02 51°18.843 2°53.89 16.3896 4.106199 32.055903 -3.020363
2011-06-07 07:51:07 51°18.852 2°53.914 16.3907 4.106199 32.055903 -3.020363
2011-06-07 07:51:13 51°18.861 2°53.943 16.3922 4.10537 32.046074 -3.020363
2011-06-07 07:51:18 51°18.869 2°53.967 16.3932 4.104541 32.036246 -3.020363
2011-06-07 07:51:22 51°18.875 2°53.987 16.3943 4.103193 32.02256 -3.020363
2011-06-07 07:51:27 51°18.882 2°54.011 16.3972 4.103504 32.022661 -3.020363
2011-06-07 07:51:33 51°18.89 2°54.041 16.3971 4.102986 32.016196 -3.020363
2011-06-07 07:51:38 51°18.897 2°54.066 16.3982 4.102986 32.016196 -3.020363
2011-06-07 07:51:42 51°18.903 2°54.085 16.4007 4.101223 31.998906 -3.020363
2011-06-07 07:51:47 51°18.909 2°54.11 16.402 4.101223 31.997605 -3.020363
2011-06-07 07:51:52 51°18.916 2°54.135 16.4034 4.098321 31.970398 -3.020363
2011-06-07 07:51:57 51°18.922 2°54.159 16.4047 4.101638 31.998611 -3.020363
2011-06-07 07:52:02 51°18.929 2°54.184 16.4043 4.10112 31.9928 -3.020363
2011-06-07 07:52:07 51°18.936 2°54.209 16.4066 4.10112 31.9928 -3.020363
2011-06-07 07:52:13 51°18.944 2°54.238 16.409 4.097388 31.959032 -3.020363
2011-06-07 07:52:18 51°18.951 2°54.262 16.4071 4.101016 31.989296 -3.020363
2011-06-07 07:52:22 51°18.958 2°54.281 16.4065 4.099565 31.97537 -3.020363
2011-06-07 07:52:27 51°18.965 2°54.305 16.4079 4.100083 31.977929 -3.020363
2011-06-07 07:52:33 51°18.975 2°54.334 16.4106 4.098839 31.965808 -3.020363
2011-06-07 07:52:38 51°18.983 2°54.357 16.4136 4.098839 31.965808 -3.020363
2011-06-07 07:52:42 51°18.99 2°54.376 16.4145 4.093553 31.919179 -3.020363
2011-06-07 07:52:47 51°18.999 2°54.399 16.4154 4.098114 31.957548 -3.020363
2011-06-07 07:52:52 51°19.008 2°54.423 16.4162 4.097284 31.950335 -3.020363
2011-06-07 07:52:58 51°19.017 2°54.451 16.4212 4.095108 31.930754 -3.020363
2011-06-07 07:53:02 51°19.024 2°54.47 16.4211 4.09376 31.918387 -3.020363
2011-06-07 07:53:07 51°19.032 2°54.494 16.4218 4.09376 31.918387 -3.020363
2011-06-07 07:53:13 51°19.042 2°54.523 16.4261 4.096766 31.943231 -3.020363
2011-06-07 07:53:18 51°19.05 2°54.548 16.4251 4.095108 31.926861 -3.020363
2011-06-07 07:53:22 51°19.056 2°54.567 16.4229 4.095004 31.924014 -3.020363
2011-06-07 07:53:27 51°19.063 2°54.592 16.4228 4.093138 31.906495 -3.020363
2011-06-07 07:53:32 51°19.071 2°54.617 16.4223 4.096144 31.930684 -3.020363
2011-06-07 07:53:38 51°19.08 2°54.646 16.4219 4.096144 31.930684 -3.020363
2011-06-07 07:53:42 51°19.086 2°54.666 16.4183 4.096455 31.93209 -3.020363
2011-06-07 07:53:47 51°19.093 2°54.691 16.417 4.09604 31.927188 -3.020363
2011-06-07 07:53:52 51°19.1 2°54.716 16.4146 4.09604 31.925891 -3.020363
2011-06-07 07:53:58 51°19.109 2°54.746 16.4145 4.097388 31.936957 -3.020363
2011-06-07 07:54:02 51°19.114 2°54.766 16.4105 4.097595 31.938759 -3.020363
2011-06-07 07:54:07 51°19.122 2°54.79 16.411 4.097595 31.938759 -3.020363
2011-06-07 07:54:13 51°19.13 2°54.82 16.4093 4.098321 31.945716 -3.020363
2011-06-07 07:54:18 51°19.137 2°54.845 16.4098 4.096766 31.932848 -3.020363
2011-06-07 07:54:22 51°19.143 2°54.865 16.4091 4.096973 31.935947 -3.020363
2011-06-07 07:54:27 51°19.15 2°54.89 16.4098 4.093967 31.911759 -3.020363
2011-06-07 07:54:33 51°19.159 2°54.919 16.4124 4.090961 31.886923 -3.020363
2011-06-07 07:54:38 51°19.166 2°54.943 16.4136 4.090961 31.886923 -3.020363
2011-06-07 07:54:42 51°19.173 2°54.963 16.4144 4.088888 31.86955 -3.020363
2011-06-07 07:54:47 51°19.181 2°54.987 16.4151 4.086297 31.84832 -3.020363
2011-06-07 07:54:53 51°19.191 2°55.015 16.4164 4.088992 31.873041 -3.020363
2011-06-07 07:54:58 51°19.199 2°55.039 16.4193 4.092827 31.907033 -3.020363
2011-06-07 07:55:02 51°19.206 2°55.057 16.4184 4.095211 31.927763 -3.020363
2011-06-07 07:55:07 51°19.215 2°55.08 16.4212 4.095211 31.927763 -3.020363
2011-06-07 07:55:12 51°19.224 2°55.104 16.4236 4.095937 31.933423 -3.020363
2011-06-07 07:55:18 51°19.234 2°55.132 16.4247 4.094589 31.921057 -3.020363
2011-06-07 07:55:22 51°19.241 2°55.151 16.4269 4.098114 31.951054 -3.020363
2011-06-07 07:55:27 51°19.249 2°55.175 16.4287 4.098839 31.956065 -3.020363
2011-06-07 07:55:33 51°19.259 2°55.203 16.4289 4.095937 31.928882 -3.020363
2011-06-07 07:55:38 51°19.267 2°55.227 16.4316 4.095937 31.928882 -3.020363
2011-06-07 07:55:42 51°19.273 2°55.247 16.4308 4.096144 31.930035 -3.020363
2011-06-07 07:55:47 51°19.281 2°55.271 16.4322 4.098735 31.951269 -3.020363
2011-06-07 07:55:53 51°19.29 2°55.3 16.4332 4.096662 31.931298 -3.020363
2011-06-07 07:55:58 51°19.297 2°55.325 16.4333 4.099772 31.957035 -3.020363
2011-06-07 07:56:02 51°19.303 2°55.345 16.4336 4.097906 31.938868 -3.020363
2011-06-07 07:56:07 51°19.31 2°55.37 16.4324 4.097906 31.938868 -3.020363
2011-06-07 07:56:12 51°19.316 2°55.395 16.4323 4.097491 31.933966 -3.020363
2011-06-07 07:56:18 51°19.324 2°55.425 16.4323 4.097699 31.935119 -3.020363
2011-06-07 07:56:22 51°19.329 2°55.445 16.4348 4.096662 31.924812 -3.020363
2011-06-07 07:56:27 51°19.335 2°55.47 16.4335 4.096248 31.92056 -3.020363
2011-06-07 07:56:33 51°19.343 2°55.5 16.4341 4.095418 31.912705 -3.020363
2011-06-07 07:56:38 51°19.348 2°55.526 16.4356 4.095418 31.912705 -3.020363
2011-06-07 07:56:42 51°19.353 2°55.546 16.4354 4.098217 31.93703 -3.020363
2011-06-07 07:56:47 51°19.359 2°55.571 16.4377 4.098632 31.939985 -3.020363
2011-06-07 07:56:53 51°19.367 2°55.602 16.44 4.09801 31.935228 -3.020363
2011-06-07 07:56:58 51°19.373 2°55.627 16.4384 4.098113 31.93548 -3.020363
2011-06-07 07:57:02 51°19.378 2°55.647 16.4409 4.095315 31.910508 -3.020363
2011-06-07 07:57:07 51°19.385 2°55.672 16.4426 4.095315 31.910508 -3.020363
2011-06-07 07:57:13 51°19.392 2°55.702 16.4456 4.097595 31.929679 -3.020363
2011-06-07 07:57:18 51°19.4 2°55.727 16.4474 4.096766 31.922472 -3.020363
2011-06-07 07:57:22 51°19.405 2°55.746 16.4469 4.096455 31.919121 -3.020363
2011-06-07 07:57:28 51°19.414 2°55.775 16.4474 4.096247 31.916023 -3.020363
2011-06-07 07:57:32 51°19.42 2°55.795 16.4483 4.094382 31.899162 -3.020363
2011-06-07 07:57:38 51°19.429 2°55.824 16.4485 4.094382 31.899162 -3.020363
2011-06-07 07:57:42 51°19.434 2°55.844 16.4478 4.095107 31.904171 -3.020363
2011-06-07 07:57:47 51°19.442 2°55.868 16.4478 4.095004 31.901975 -3.020363
2011-06-07 07:57:53 51°19.45 2°55.897 16.4474 4.0949 31.899132 -3.020363
2011-06-07 07:57:58 51°19.457 2°55.922 16.4444 4.094589 31.895782 -3.020363
2011-06-07 07:58:02 51°19.463 2°55.942 16.4458 4.0949 31.897836 -3.020363
2011-06-07 07:58:08 51°19.471 2°55.971 16.4446 4.0949 31.897836 -3.020363
2011-06-07 07:58:13 51°19.477 2°55.996 16.4442 4.095003 31.897442 -3.020363
2011-06-07 07:58:18 51°19.484 2°56.021 16.4396 4.095833 31.903999 -3.020363
2011-06-07 07:58:22 51°19.488 2°56.041 16.4422 4.09604 31.9058 -3.020363
2011-06-07 07:58:27 51°19.494 2°56.067 16.4397 4.095522 31.901945 -3.020363
2011-06-07 07:58:33 51°19.501 2°56.097 16.4411 4.09604 31.906447 -3.020363
2011-06-07 07:58:38 51°19.506 2°56.123 16.4363 4.09604 31.906447 -3.020363
2011-06-07 07:58:42 51°19.511 2°56.143 16.438 4.095522 31.902592 -3.020363
2011-06-07 07:58:47 51°19.515 2°56.169 16.4355 4.094278 31.892433 -3.020363
2011-06-07 07:58:53 51°19.522 2°56.2 16.4363 4.095211 31.901186 -3.020363
2011-06-07 07:58:58 51°19.527 2°56.225 16.4359 4.093034 31.883569 -3.020363
2011-06-07 07:59:02 51°19.532 2°56.246 16.438 4.095833 31.907885 -3.020363
2011-06-07 07:59:07 51°19.538 2°56.271 16.4344 4.095833 31.907885 -3.020363
2011-06-07 07:59:12 51°19.543 2°56.297 16.4338 4.094278 31.895671 -3.020363
2011-06-07 07:59:18 51°19.55 2°56.327 16.4352 4.095522 31.907774 -3.020363
2011-06-07 07:59:22 51°19.554 2°56.348 16.4343 4.095729 31.910871 -3.020363
2011-06-07 07:59:27 51°19.561 2°56.373 16.4361 4.095833 31.911772 -3.020363
2011-06-07 07:59:33 51°19.568 2°56.403 16.4353 4.095626 31.910619 -3.020363
2011-06-07 07:59:38 51°19.574 2°56.429 16.4343 4.095626 31.910619 -3.020363
2011-06-07 07:59:42 51°19.579 2°56.449 16.4352 4.09604 31.914222 -3.020363
2011-06-07 07:59:47 51°19.586 2°56.474 16.4345 4.095107 31.906763 -3.020363
2011-06-07 07:59:53 51°19.593 2°56.504 16.4376 4.09604 31.91487 -3.020363
2011-06-07 07:59:58 51°19.6 2°56.529 16.4352 4.095936 31.913969 -3.020363
2011-06-07 08:00:02 51°19.605 2°56.549 16.4347 4.094485 31.901358 -3.020363
2011-06-07 08:00:07 51°19.612 2°56.574 16.4344 4.094485 31.901358 -3.020363
2011-06-07 08:00:12 51°19.619 2°56.598 16.4362 4.0949 31.904961 -3.020363
2011-06-07 08:00:18 51°19.628 2°56.628 16.4359 4.095833 31.913716 -3.020363
2011-06-07 08:00:22 51°19.633 2°56.648 16.4371 4.094071 31.898403 -3.020363
2011-06-07 08:00:28 51°19.641 2°56.678 16.4353 4.095729 31.912815 -3.020363
2011-06-07 08:00:32 51°19.647 2°56.698 16.4364 4.095211 31.908311 -3.020363
2011-06-07 08:00:38 51°19.654 2°56.728 16.4359 4.095211 31.908311 -3.020363
2011-06-07 08:00:42 51°19.659 2°56.748 16.436 4.095626 31.911914 -3.020363
2011-06-07 08:00:47 51°19.665 2°56.774 16.4359 4.095522 31.911014 -3.020363
2011-06-07 08:00:53 51°19.671 2°56.804 16.4357 4.095107 31.906763 -3.020363
2011-06-07 08:00:58 51°19.676 2°56.83 16.4362 4.095729 31.912167 -3.020363
2011-06-07 08:01:02 51°19.681 2°56.851 16.4346 4.095522 31.909718 -3.020363
2011-06-07 08:01:08 51°19.687 2°56.882 16.4365 4.095522 31.909718 -3.020363
2011-06-07 08:01:13 51°19.692 2°56.907 16.4393 4.095004 31.905214 -3.020363
2011-06-07 08:01:18 51°19.698 2°56.933 16.4357 4.094174 31.898008 -3.020363
2011-06-07 08:01:22 51°19.701 2°56.954 16.437 4.093863 31.895306 -3.020363
2011-06-07 08:01:27 51°19.706 2°56.98 16.4403 4.093241 31.889902 -3.020363
2011-06-07 08:01:33 51°19.712 2°57.012 16.4388 4.094796 31.903412 -3.020363
2011-06-07 08:01:38 51°19.717 2°57.038 16.4425 4.094796 31.903412 -3.020363
2011-06-07 08:01:42 51°19.721 2°57.058 16.4415 4.094278 31.898909 -3.020363
2011-06-07 08:01:47 51°19.726 2°57.084 16.4413 4.093345 31.890155 -3.020363
2011-06-07 08:01:53 51°19.732 2°57.115 16.4435 4.093449 31.891056 -3.020363
2011-06-07 08:01:58 51°19.738 2°57.141 16.4438 4.095211 31.90572 -3.020363
2011-06-07 08:02:02 51°19.742 2°57.162 16.4449 4.095418 31.906873 -3.020363
2011-06-07 08:02:07 51°19.748 2°57.187 16.4447 4.095418 31.906873 -3.020363
2011-06-07 08:02:13 51°19.756 2°57.217 16.4491 4.094796 31.901469 -3.020363
2011-06-07 08:02:18 51°19.762 2°57.242 16.4512 4.095107 31.902876 -3.020363
2011-06-07 08:02:22 51°19.767 2°57.262 16.4535 4.094382 31.896571 -3.020363
2011-06-07 08:02:27 51°19.775 2°57.285 16.4565 4.093449 31.887818 -3.020363
2011-06-07 08:02:33 51°19.783 2°57.315 16.4576 4.094693 31.89733 -3.020363
2011-06-07 08:02:38 51°19.79 2°57.341 16.4592 4.094693 31.89733 -3.020363
2011-06-07 08:02:42 51°19.795 2°57.361 16.4617 4.093345 31.885623 -3.020363
2011-06-07 08:02:47 51°19.802 2°57.386 16.4623 4.094071 31.889985 -3.020363
2011-06-07 08:02:53 51°19.811 2°57.415 16.4634 4.093967 31.88779 -3.020363
2011-06-07 08:02:58 51°19.818 2°57.44 16.4654 4.09293 31.876844 -3.020363
2011-06-07 08:03:02 51°19.824 2°57.459 16.4653 4.094174 31.885707 -3.020363
2011-06-07 08:03:07 51°19.83 2°57.484 16.4659 4.094174 31.885707 -3.020363
2011-06-07 08:03:13 51°19.838 2°57.514 16.4683 4.092619 31.870262 -3.020363
2011-06-07 08:03:18 51°19.845 2°57.539 16.4694 4.093863 31.879124 -3.020363
2011-06-07 08:03:22 51°19.849 2°57.56 16.4688 4.093759 31.87693 -3.020363
2011-06-07 08:03:27 51°19.855 2°57.585 16.467 4.093241 31.870489 -3.020363
2011-06-07 08:03:32 51°19.86 2°57.611 16.4681 4.092308 31.861095 -3.020363
2011-06-07 08:03:38 51°19.866 2°57.642 16.4653 4.092308 31.861095 -3.020363
2011-06-07 08:03:42 51°19.871 2°57.662 16.4682 4.093448 31.869703 -3.020363
2011-06-07 08:03:47 51°19.875 2°57.688 16.4653 4.091375 31.851056 -3.020363
2011-06-07 08:03:53 51°19.881 2°57.719 16.465 4.091997 31.855163 -3.020363
2011-06-07 08:03:58 51°19.887 2°57.744 16.4634 4.092412 31.858117 -3.020363
2011-06-07 08:04:02 51°19.891 2°57.765 16.4642 4.092101 31.855417 -3.020363
2011-06-07 08:04:08 51°19.898 2°57.795 16.4679 4.092101 31.855417 -3.020363
2011-06-07 08:04:13 51°19.903 2°57.82 16.4637 4.092412 31.858763 -3.020363
2011-06-07 08:04:18 51°19.91 2°57.845 16.4646 4.091686 31.852464 -3.020363
2011-06-07 08:04:22 51°19.915 2°57.865 16.4652 4.091997 31.855163 -3.020363
2011-06-07 08:04:27 51°19.921 2°57.89 16.4692 4.091272 31.850156 -3.020363
2011-06-07 08:04:33 51°19.929 2°57.92 16.468 4.092308 31.859802 -3.020363
2011-06-07 08:04:38 51°19.936 2°57.944 16.4698 4.092308 31.859802 -3.020363
2011-06-07 08:04:42 51°19.941 2°57.964 16.4718 4.091894 31.856202 -3.020363
2011-06-07 08:04:47 51°19.948 2°57.989 16.4719 4.092308 31.859156 -3.020363
2011-06-07 08:04:53 51°19.956 2°58.018 16.4728 4.091997 31.856456 -3.020363
2011-06-07 08:04:58 51°19.962 2°58.043 16.472 4.092308 31.85851 -3.020363
2011-06-07 08:05:02 51°19.968 2°58.063 16.4731 4.091583 31.851564 -3.020363
2011-06-07 08:05:07 51°19.974 2°58.088 16.4709 4.091583 31.851564 -3.020363
2011-06-07 08:05:13 51°19.981 2°58.118 16.4738 4.091686 31.851817 -3.020363
2011-06-07 08:05:18 51°19.987 2°58.143 16.4715 4.09065 31.841527 -3.020363
2011-06-07 08:05:22 51°19.992 2°58.164 16.4693 4.091997 31.851933 -3.020363
2011-06-07 08:05:27 51°19.998 2°58.189 16.4707 4.09065 31.839589 -3.020363
2011-06-07 08:05:32 51°20.002 2°58.215 16.4702 4.090339 31.83689 -3.020363
2011-06-07 08:05:38 51°20.009 2°58.245 16.4703 4.090339 31.83689 -3.020363
2011-06-07 08:05:42 51°20.012 2°58.266 16.4686 4.091583 31.847041 -3.020363
2011-06-07 08:05:47 51°20.017 2°58.292 16.4672 4.090857 31.840743 -3.020363
2011-06-07 08:05:53 51°20.023 2°58.323 16.4658 4.089613 31.829946 -3.020363
2011-06-07 08:05:58 51°20.028 2°58.348 16.465 4.090339 31.836244 -3.020363
2011-06-07 08:06:02 51°20.031 2°58.369 16.4647 4.089717 31.831491 -3.020363
2011-06-07 08:06:07 51°20.037 2°58.394 16.4631 4.089717 31.831491 -3.020363
2011-06-07 08:06:13 51°20.043 2°58.425 16.4629 4.089821 31.832391 -3.020363
2011-06-07 08:06:18 51°20.048 2°58.45 16.4691 4.089717 31.832137 -3.020363
2011-06-07 08:06:22 51°20.053 2°58.47 16.465 4.090857 31.84268 -3.020363
2011-06-07 08:06:27 51°20.059 2°58.496 16.4666 4.090339 31.838827 -3.020363
2011-06-07 08:06:32 51°20.065 2°58.521 16.469 4.090753 31.843718 -3.020363
2011-06-07 08:06:38 51°20.073 2°58.551 16.4702 4.090753 31.843718 -3.020363
2011-06-07 08:06:42 51°20.079 2°58.571 16.4702 4.089924 31.837811 -3.020363
2011-06-07 08:06:47 51°20.085 2°58.596 16.4727 4.090339 31.842057 -3.020363
2011-06-07 08:06:53 51°20.094 2°58.626 16.4771 4.090235 31.840511 -3.020363
2011-06-07 08:06:58 51°20.101 2°58.65 16.4798 4.091064 31.84771 -3.020363
2011-06-07 08:07:02 51°20.106 2°58.671 16.4845 4.090857 31.845264 -3.020363
2011-06-07 08:07:08 51°20.114 2°58.701 16.4888 4.090857 31.845264 -3.020363
2011-06-07 08:07:13 51°20.12 2°58.726 16.4916 4.090857 31.844618 -3.020363
2011-06-07 08:07:18 51°20.126 2°58.752 16.4944 4.090961 31.844226 -3.020363
2011-06-07 08:07:22 51°20.131 2°58.772 16.4976 4.090131 31.835736 -3.020363
2011-06-07 08:07:27 51°20.137 2°58.798 16.5013 4.090857 31.840097 -3.020363
2011-06-07 08:07:33 51°20.143 2°58.829 16.5031 4.090339 31.833016 -3.020363
2011-06-07 08:07:38 51°20.149 2°58.855 16.5042 4.090339 31.833016 -3.020363
2011-06-07 08:07:42 51°20.153 2°58.876 16.5037 4.090442 31.830042 -3.020363
2011-06-07 08:07:47 51°20.158 2°58.902 16.5054 4.089613 31.820265 -3.020363
2011-06-07 08:07:53 51°20.164 2°58.933 16.5062 4.088058 31.803549 -3.020363
2011-06-07 08:07:58 51°20.169 2°58.959 16.5059 4.089198 31.810217 -3.020363
2011-06-07 08:08:02 51°20.173 2°58.979 16.5068 4.087436 31.792353 -3.020363
2011-06-07 08:08:07 51°20.179 2°59.005 16.507 4.087436 31.792353 -3.020363
2011-06-07 08:08:13 51°20.186 2°59.035 16.5083 4.086711 31.783483 -3.020363
2011-06-07 08:08:18 51°20.192 2°59.06 16.5084 4.087332 31.787588 -3.020363
2011-06-07 08:08:22 51°20.198 2°59.08 16.5094 4.087229 31.785401 -3.020363
2011-06-07 08:08:27 51°20.204 2°59.105 16.5113 4.087643 31.787708 -3.020363
2011-06-07 08:08:32 51°20.212 2°59.129 16.5128 4.086296 31.775379 -3.020363
2011-06-07 08:08:38 51°20.221 2°59.158 16.5122 4.086296 31.775379 -3.020363
2011-06-07 08:08:42 51°20.227 2°59.178 16.5149 4.086814 31.779873 -3.020363
2011-06-07 08:08:47 51°20.235 2°59.202 16.5138 4.087021 31.781027 -3.020363
2011-06-07 08:08:53 51°20.244 2°59.231 16.5155 4.087436 31.783334 -3.020363
2011-06-07 08:08:58 51°20.252 2°59.254 16.5149 4.087643 31.784488 -3.020363
2011-06-07 08:09:02 51°20.258 2°59.274 16.5149 4.086918 31.777552 -3.020363
2011-06-07 08:09:07 51°20.266 2°59.298 16.5152 4.086918 31.777552 -3.020363
2011-06-07 08:09:13 51°20.276 2°59.326 16.5153 4.087436 31.781402 -3.020363
2011-06-07 08:09:18 51°20.284 2°59.35 16.5155 4.087643 31.781912 -3.020363
2011-06-07 08:09:22 51°20.29 2°59.37 16.5142 4.086296 31.769585 -3.020363
2011-06-07 08:09:27 51°20.298 2°59.394 16.5163 4.08754 31.779726 -3.020363
2011-06-07 08:09:32 51°20.305 2°59.418 16.5149 4.086192 31.767399 -3.020363
2011-06-07 08:09:38 51°20.313 2°59.448 16.5139 4.086192 31.767399 -3.020363
2011-06-07 08:09:42 51°20.318 2°59.468 16.5137 4.086814 31.772791 -3.020363
2011-06-07 08:09:47 51°20.325 2°59.493 16.5119 4.087332 31.776641 -3.020363
2011-06-07 08:09:53 51°20.332 2°59.523 16.5131 4.086814 31.772148 -3.020363
2011-06-07 08:09:58 51°20.338 2°59.549 16.5107 4.087332 31.775997 -3.020363
2011-06-07 08:10:02 51°20.342 2°59.569 16.5107 4.086607 31.769707 -3.020363
2011-06-07 08:10:07 51°20.347 2°59.595 16.5095 4.086607 31.769707 -3.020363
2011-06-07 08:10:13 51°20.354 2°59.625 16.5106 4.08754 31.777794 -3.020363
2011-06-07 08:10:18 51°20.359 2°59.651 16.5085 4.087229 31.775742 -3.020363
2011-06-07 08:10:22 51°20.363 2°59.671 16.5077 4.087021 31.773945 -3.020363
2011-06-07 08:10:27 51°20.368 2°59.697 16.5073 4.087332 31.776641 -3.020363
2011-06-07 08:10:32 51°20.373 2°59.723 16.5091 4.087643 31.779981 -3.020363
2011-06-07 08:10:38 51°20.38 2°59.753 16.5067 4.087643 31.779981 -3.020363
2011-06-07 08:10:42 51°20.384 2°59.774 16.509 4.086918 31.774977 -3.020363
2011-06-07 08:10:47 51°20.39 2°59.799 16.5023 4.087229 31.778317 -3.020363
2011-06-07 08:10:53 51°20.396 2°59.83 16.5036 4.085881 31.767277 -3.020363
2011-06-07 08:10:58 51°20.401 2°59.855 16.5037 4.085985 31.768176 -3.020363
2011-06-07 08:11:02 51°20.405 2°59.876 16.5035 4.08671 31.775111 -3.020363
2011-06-07 08:11:07 51°20.411 2°59.901 16.505 4.08671 31.775111 -3.020363
2011-06-07 08:11:13 51°20.417 2°59.932 16.5045 4.0864 31.773059 -3.020363
2011-06-07 08:11:18 51°20.423 2°59.957 16.5032 4.087332 31.781792 -3.020363
2011-06-07 08:11:22 51°20.428 2°59.976 16.502 4.087125 31.780638 -3.020363
2011-06-07 08:11:28 51°20.436 3°0.006 16.5012 4.086089 31.772937 -3.020363
2011-06-07 08:11:33 51°20.444 3°0.03 16.5024 4.084741 31.761253 -3.020363
2011-06-07 08:11:38 51°20.45 3°0.054 16.5013 4.084741 31.761253 -3.020363
2011-06-07 08:11:42 51°20.457 3°0.073 16.5022 4.086089 31.773581 -3.020363
2011-06-07 08:11:47 51°20.463 3°0.097 16.5022 4.085259 31.76639 -3.020363
2011-06-07 08:11:52 51°20.471 3°0.121 16.5008 4.085467 31.768188 -3.020363
2011-06-07 08:11:58 51°20.479 3°0.15 16.5032 4.085156 31.766135 -3.020363
2011-06-07 08:12:02 51°20.486 3°0.17 16.5045 4.084741 31.763184 -3.020363
2011-06-07 08:12:07 51°20.493 3°0.194 16.5035 4.084741 31.763184 -3.020363
2011-06-07 08:12:12 51°20.5 3°0.218 16.5022 4.084016 31.756892 -3.020363
2011-06-07 08:12:18 51°20.509 3°0.246 16.5036 4.084327 31.759588 -3.020363
2011-06-07 08:12:22 51°20.515 3°0.266 16.5034 4.084223 31.75869 -3.020363
2011-06-07 08:12:27 51°20.522 3°0.29 16.5061 4.083808 31.755094 -3.020363
2011-06-07 08:12:32 51°20.529 3°0.315 16.5059 4.08329 31.7506 -3.020363
2011-06-07 08:12:38 51°20.537 3°0.344 16.5045 4.08329 31.7506 -3.020363
2011-06-07 08:12:42 51°20.541 3°0.364 16.5089 4.082772 31.745463 -3.020363
2011-06-07 08:12:48 51°20.548 3°0.395 16.5068 4.081528 31.734679 -3.020363
2011-06-07 08:12:53 51°20.553 3°0.42 16.5058 4.081113 31.731084 -3.020363
2011-06-07 08:12:58 51°20.559 3°0.445 16.5056 4.081217 31.731983 -3.020363
2011-06-07 08:13:02 51°20.563 3°0.465 16.5057 4.080388 31.72415 -3.020363
2011-06-07 08:13:08 51°20.57 3°0.495 16.5052 4.080388 31.72415 -3.020363
2011-06-07 08:13:12 51°20.574 3°0.516 16.506 4.07987 31.719657 -3.020363
2011-06-07 08:13:18 51°20.58 3°0.546 16.5062 4.079351 31.713879 -3.020363
2011-06-07 08:13:22 51°20.585 3°0.566 16.5064 4.079455 31.714135 -3.020363
2011-06-07 08:13:26 51°20.589 3°0.587 16.5069 4.078626 31.706947 -3.020363
2011-06-07 08:13:33 51°20.596 3°0.622 16.5087 4.077175 31.694368 -3.020363
2011-06-07 08:13:38 51°20.602 3°0.647 16.5097 4.077175 31.694368 -3.020363
2011-06-07 08:13:42 51°20.607 3°0.667 16.5108 4.0779 31.700657 -3.020363
2011-06-07 08:13:46 51°20.612 3°0.687 16.5147 4.076656 31.689876 -3.020363
2011-06-07 08:13:52 51°20.62 3°0.716 16.5148 4.07676 31.690132 -3.020363
2011-06-07 08:13:58 51°20.628 3°0.746 16.5152 4.07562 31.680892 -3.020363
2011-06-07 08:14:02 51°20.633 3°0.765 16.5187 4.075516 31.679351 -3.020363
2011-06-07 08:14:07 51°20.64 3°0.789 16.517 4.075516 31.679351 -3.020363
2011-06-07 08:14:12 51°20.647 3°0.814 16.5209 4.072303 31.651504 -3.020363
2011-06-07 08:14:18 51°20.655 3°0.843 16.5202 4.073547 31.661 -3.020363
2011-06-07 08:14:22 51°20.661 3°0.862 16.5213 4.073651 31.661257 -3.020363
2011-06-07 08:14:27 51°20.668 3°0.887 16.5204 4.072303 31.647657 -3.020363
2011-06-07 08:14:33 51°20.676 3°0.916 16.5211 4.071888 31.642782 -3.020363
2011-06-07 08:14:38 51°20.683 3°0.94 16.5239 4.071888 31.642782 -3.020363
2011-06-07 08:14:42 51°20.688 3°0.96 16.5255 4.070645 31.630724 -3.020363
2011-06-07 08:14:48 51°20.695 3°0.99 16.5269 4.070541 31.629185 -3.020363
2011-06-07 08:14:53 51°20.701 3°1.015 16.5316 4.068572 31.610844 -3.020363
2011-06-07 08:14:58 51°20.706 3°1.04 16.5317 4.069504 31.617644 -3.020363
2011-06-07 08:15:02 51°20.71 3°1.06 16.533 4.066913 31.594559 -3.020363
2011-06-07 08:15:07 51°20.715 3°1.086 16.5344 4.066913 31.594559 -3.020363
2011-06-07 08:15:12 51°20.72 3°1.111 16.5342 4.067639 31.600203 -3.020363
2011-06-07 08:15:18 51°20.726 3°1.141 16.5353 4.065462 31.580072 -3.020363
2011-06-07 08:15:22 51°20.73 3°1.161 16.5344 4.065255 31.576358 -3.020363
2011-06-07 08:15:26 51°20.734 3°1.181 16.5345 4.063907 31.562773 -3.020363
2011-06-07 08:15:33 51°20.741 3°1.217 16.5357 4.063182 31.555213 -3.020363
2011-06-07 08:15:38 51°20.746 3°1.241 16.5374 4.063182 31.555213 -3.020363
2011-06-07 08:15:42 51°20.751 3°1.261 16.5378 4.061731 31.541372 -3.020363
2011-06-07 08:15:47 51°20.757 3°1.286 16.5389 4.061524 31.538301 -3.020363
2011-06-07 08:15:52 51°20.763 3°1.31 16.5383 4.059969 31.524204 -3.020363
2011-06-07 08:15:58 51°20.77 3°1.339 16.5399 4.05914 31.517026 -3.020363
2011-06-07 08:16:02 51°20.776 3°1.358 16.543 4.058207 31.508314 -3.020363
2011-06-07 08:16:07 51°20.782 3°1.382 16.5435 4.058207 31.508314 -3.020363
2011-06-07 08:16:12 51°20.789 3°1.406 16.5452 4.056549 31.493961 -3.020363
2011-06-07 08:16:18 51°20.798 3°1.434 16.5457 4.055305 31.483196 -3.020363
2011-06-07 08:16:22 51°20.802 3°1.454 16.5471 4.053646 31.468208 -3.020363
2011-06-07 08:16:27 51°20.81 3°1.477 16.5512 4.052195 31.454378 -3.020363
2011-06-07 08:16:32 51°20.816 3°1.501 16.5615 4.053543 31.462216 -3.020363
2011-06-07 08:16:38 51°20.824 3°1.53 16.5606 4.053543 31.462216 -3.020363
2011-06-07 08:16:42 51°20.83 3°1.549 16.5621 4.051573 31.440724 -3.020363
2011-06-07 08:16:47 51°20.836 3°1.573 16.5602 4.049397 31.418719 -3.020363
2011-06-07 08:16:53 51°20.844 3°1.602 16.564 4.047013 31.397467 -3.020363
2011-06-07 08:16:58 51°20.85 3°1.626 16.5694 4.045147 31.3807 -3.020363
2011-06-07 08:17:02 51°20.855 3°1.646 16.5686 4.044422 31.371888 -3.020363
2011-06-07 08:17:07 51°20.86 3°1.671 16.5673 4.044422 31.371888 -3.020363
2011-06-07 08:17:13 51°20.866 3°1.701 16.5678 4.043593 31.361548 -3.020363
2011-06-07 08:17:18 51°20.871 3°1.725 16.5667 4.042349 31.34826 -3.020363
2011-06-07 08:17:22 51°20.875 3°1.745 16.5706 4.04266 31.349046 -3.020363
2011-06-07 08:17:28 51°20.881 3°1.775 16.5728 4.042763 31.348674 -3.020363
2011-06-07 08:17:32 51°20.885 3°1.795 16.5717 4.042971 31.349198 -3.020363
2011-06-07 08:17:38 51°20.89 3°1.825 16.5699 4.042971 31.349198 -3.020363
2011-06-07 08:17:42 51°20.895 3°1.845 16.5745 4.040794 31.329121 -3.020363
2011-06-07 08:17:48 51°20.9 3°1.875 16.5742 4.042556 31.34308 -3.020363
2011-06-07 08:17:52 51°20.904 3°1.894 16.5782 4.04038 31.323638 -3.020363
2011-06-07 08:17:58 51°20.91 3°1.924 16.5829 4.040691 31.325058 -3.020363
2011-06-07 08:18:02 51°20.914 3°1.944 16.585 4.040794 31.324054 -3.020363
2011-06-07 08:18:06 51°20.919 3°1.963 16.591 4.040794 31.324054 -3.020363
2011-06-07 08:18:13 51°20.927 3°1.997 16.5862 4.042038 31.333533 -3.020363
2011-06-07 08:18:18 51°20.933 3°2.021 16.6013 4.042763 31.338535 -3.020363
2011-06-07 08:18:22 51°20.938 3°2.04 16.5898 4.042141 31.331896 -3.020363
2011-06-07 08:18:27 51°20.944 3°2.064 16.5909 4.041312 31.323466 -3.020363
2011-06-07 08:18:32 51°20.951 3°2.088 16.5956 4.042556 31.331678 -3.020363
2011-06-07 08:18:38 51°20.959 3°2.116 16.6015 4.042556 31.331678 -3.020363
2011-06-07 08:18:42 51°20.964 3°2.135 16.5927 4.042556 31.330411 -3.020363
2011-06-07 08:18:47 51°20.971 3°2.159 16.5938 4.041519 31.318927 -3.020363
2011-06-07 08:18:52 51°20.977 3°2.183 16.5975 4.044111 31.340041 -3.020363
2011-06-07 08:18:57 51°20.984 3°2.207 16.5935 4.044629 31.343884 -3.020363
2011-06-07 08:19:02 51°20.99 3°2.23 16.5882 4.044836 31.344408 -3.020363
2011-06-07 08:19:08 51°20.998 3°2.259 16.5918 4.044836 31.344408 -3.020363
2011-06-07 08:19:13 51°21.004 3°2.283 16.5883 4.04494 31.34277 -3.020363
2011-06-07 08:19:18 51°21.009 3°2.307 16.5942 4.044421 31.336396 -3.020363
2011-06-07 08:19:22 51°21.014 3°2.327 16.5892 4.04494 31.341504 -3.020363
2011-06-07 08:19:28 51°21.019 3°2.356 16.5871 4.045043 31.341766 -3.020363
2011-06-07 08:19:33 51°21.024 3°2.381 16.5947 4.045147 31.342661 -3.020363
2011-06-07 08:19:38 51°21.029 3°2.405 16.5879 4.045147 31.342661 -3.020363
2011-06-07 08:19:42 51°21.033 3°2.425 16.5892 4.045458 31.345347 -3.020363
2011-06-07 08:19:48 51°21.039 3°2.454 16.5869 4.044836 31.340609 -3.020363
2011-06-07 08:19:52 51°21.042 3°2.474 16.586 4.044214 31.335872 -3.020363
2011-06-07 08:19:58 51°21.048 3°2.504 16.5893 4.044421 31.337662 -3.020363
2011-06-07 08:20:02 51°21.051 3°2.524 16.5886 4.045976 31.351722 -3.020363
2011-06-07 08:20:07 51°21.056 3°2.548 16.5894 4.045976 31.351722 -3.020363
2011-06-07 08:20:13 51°21.063 3°2.577 16.5799 4.046494 31.356198 -3.020363
2011-06-07 08:20:18 51°21.068 3°2.602 16.5864 4.046805 31.359517 -3.020363
2011-06-07 08:20:22 51°21.072 3°2.621 16.5848 4.046391 31.35657 -3.020363
2011-06-07 08:20:27 51°21.078 3°2.646 16.5848 4.045251 31.347356 -3.020363
2011-06-07 08:20:33 51°21.084 3°2.675 16.5881 4.045976 31.353622 -3.020363
2011-06-07 08:20:38 51°21.09 3°2.699 16.5903 4.045976 31.353622 -3.020363
2011-06-07 08:20:42 51°21.094 3°2.719 16.5826 4.046909 31.362313 -3.020363
2011-06-07 08:20:48 51°21.1 3°2.748 16.5874 4.046598 31.360261 -3.020363
2011-06-07 08:20:52 51°21.104 3°2.768 16.5847 4.045561 31.351308 -3.020363
2011-06-07 08:20:58 51°21.111 3°2.797 16.5813 4.045665 31.352837 -3.020363
2011-06-07 08:21:02 51°21.116 3°2.816 16.5789 4.046702 31.361156 -3.020363
2011-06-07 08:21:08 51°21.122 3°2.846 16.5851 4.046702 31.361156 -3.020363
2011-06-07 08:21:12 51°21.127 3°2.865 16.5784 4.046183 31.35668 -3.020363
2011-06-07 08:21:18 51°21.133 3°2.894 16.5794 4.045043 31.347465 -3.020363
2011-06-07 08:21:22 51°21.138 3°2.913 16.5807 4.04608 31.356418 -3.020363
2011-06-07 08:21:28 51°21.144 3°2.943 16.5851 4.046183 31.357947 -3.020363
2011-06-07 08:21:32 51°21.148 3°2.962 16.5839 4.046287 31.359476 -3.020363
2011-06-07 08:21:38 51°21.154 3°2.991 16.5755 4.046287 31.359476 -3.020363
2011-06-07 08:21:42 51°21.159 3°3.01 16.5783 4.047013 31.366377 -3.020363
2011-06-07 08:21:48 51°21.165 3°3.04 16.5807 4.04722 31.368168 -3.020363
2011-06-07 08:21:52 51°21.169 3°3.059 16.5782 4.046702 31.363691 -3.020363
2011-06-07 08:21:58 51°21.175 3°3.089 16.5803 4.045562 31.354476 -3.020363
2011-06-07 08:22:02 51°21.18 3°3.108 16.58 4.046494 31.362534 -3.020363
2011-06-07 08:22:08 51°21.186 3°3.138 16.5765 4.046494 31.362534 -3.020363
2011-06-07 08:22:13 51°21.192 3°3.162 16.5757 4.046391 31.361639 -3.020363
2011-06-07 08:22:18 51°21.198 3°3.186 16.5728 4.046287 31.362011 -3.020363
2011-06-07 08:22:22 51°21.202 3°3.205 16.5772 4.045769 31.3569 -3.020363
2011-06-07 08:22:27 51°21.21 3°3.228 16.5736 4.046183 31.360482 -3.020363
2011-06-07 08:22:32 51°21.216 3°3.252 16.5745 4.04608 31.359586 -3.020363
2011-06-07 08:22:38 51°21.225 3°3.28 16.5756 4.04608 31.359586 -3.020363
2011-06-07 08:22:42 51°21.23 3°3.299 16.5816 4.045458 31.354848 -3.020363
2011-06-07 08:22:48 51°21.238 3°3.327 16.5728 4.045873 31.359697 -3.020363
2011-06-07 08:22:53 51°21.245 3°3.35 16.5754 4.045873 31.360964 -3.020363